     2              OBSERVATION DATA    GPS                 RINEX VERSION / TYPE
teqc 2003Nov3 UNAVCO Archive Ops 20031119 19:32:49UTC       PGM / RUN BY / DATE
                                                            COMMENT
L1 & L2: 9 8 7 6 5 4 1                                      COMMENT
L1 & L2: 9 8 7 6 5 4 1                                      COMMENT
L1 & L2: 9 8 7 6 5 4 1                                      COMMENT
L1 & L2: 9 8 7 6 5 4 1                                      COMMENT
L1 & L2: 9 8 7 6 5 4 1                                      COMMENT
L1 & L2: 9 8 7 6 5 4 1                                      COMMENT
L1 & L2: 9 8 7 6 5 4 1                                      COMMENT
L1 & L2: 9 8 7 6 5 4 1                                      COMMENT
L1 & L2: 9 8 7 6 5 4 1                                      COMMENT
L1 & L2: 9 8 7 6 5 4 1                                      COMMENT
L1 & L2: 9 8 7 6 5 4 1                                      COMMENT
L1 & L2: 9 8 7 6 5 4 1                                      COMMENT
L1 & L2: 9 8 7 6 5 4 1                                      COMMENT
L1 & L2: 9 8 7 6 5 4 1                                      COMMENT
L1 & L2: 9 8 7 6 5 4 1                                      COMMENT
L1 & L2: 9 8 7 6 5 4 1                                      COMMENT
L1 & L2: 9 8 7 6 5 4 1                                      COMMENT
L1 & L2: 9 8 7 6 5 4 1                                      COMMENT
L1 & L2: 9 8 7 6 5 4 1                                      COMMENT
L1 & L2: 9 8 7 6 5 4 1                                      COMMENT
L1 & L2: 9 8 7 6 5 4 1                                      COMMENT
L1 & L2: 9 8 7 6 5 4 1                                      COMMENT
L1 & L2: 9 8 7 6 5 4 1                                      COMMENT
L1 & L2: 9 8 7 6 5 4 1                                      COMMENT
L1 & L2: 9 8 7 6 5 4 1                                      COMMENT
L1 & L2: 9 8 7 6 5 4 1                                      COMMENT
Original Marker Name: ENDA                                  COMMENT
Campaign Name: Baja (Dixon) 1994                            COMMENT
4-Character Station Name: ENDA                              COMMENT
6-Character Antenna Code: DMRCHT                            COMMENT
Vertical Measurement Point: BCR                             COMMENT
Vertical Offset to Rinex Ref. Point: 0.0348                 COMMENT
Radial Measurement Point: ECF                               COMMENT
Radial Offset to Rinex Ref. Point: 0.1897                   COMMENT
Antenna Height from Field Measurement: 1.4250 m             COMMENT
Additional Antenna Identification Info.:                    COMMENT
Turborogue and Ashtech Choke Ring                           COMMENT
Original XYZ: -2433335.6442 -4844930.6722 3348397.0307      COMMENT
New XYZ position is based on association with SCEC monument COMMENT
E1C2W4P4+0011. Position of that monument is believed to be  COMMENT
valid to within 1 m horizontally; vertical accuracy         COMMENT
should be no worse than 3-times this value.                 COMMENT
                                                            COMMENT
Revised Rinex header created by UCSD GPS archive for        COMMENT
GSAC on 09-Jun-2007 (2007:160) 17:13:27 GMT                 COMMENT
For assistance contact dagnew@ucsd.edu                      COMMENT
or anderson@python.ucsd.edu                                 COMMENT
                                                            COMMENT
3035S                                                       MARKER NAME
360                                                         MARKER NUMBER
Orozco. Luis CICESE (ENSENADA)                              OBSERVER / AGENCY
T122 TURBOROGUE SNR-8000 93.06.08                           REC # / TYPE / VERS
122 DORNE-MARGOL. TYPE T                                    ANT # / TYPE
 -2433337.0000 -4844929.0000  3348395.0000                  APPROX POSITION XYZ
        1.3775        0.0000        0.0000                  ANTENNA: DELTA H/E/N
     1     1     0                                          WAVELENGTH FACT L1/2
     5    L1    L2    C1    P2    P1                        # / TYPES OF OBSERV
    30                                                      INTERVAL
  1995     3    14     0     0    0.000000                  TIME OF FIRST OBS
  1995     3    14     1    47   30.000000                  TIME OF LAST OBS
                                                            END OF HEADER
 95  3 14  0  0  0.0000000  0  8G 4G 2G24G12G 9G27G 5G 7
 -18937010.15049 -14756075.12847  21401218.0944   21401217.9254
 -16052837.89049 -12508686.62547  21924579.9644   21924580.9844
  -8629304.06448  -6724110.79646  23386460.5404   23386461.9764
 -19540731.982 9 -15226528.803 9  21452757.317    21452755.869
   -164423.92049   -128121.50547  22689840.2274   22689840.3054
  -6979851.76848  -5438841.59545  23953532.2934   23953534.4494
  -1531948.26548  -1193723.01145  25021664.3454   25021665.8944
 -21993739.09849 -17137943.69848  20858521.8294   20858522.3194
 95  3 14  0  0 30.0000000  0  8G 4G 2G24G12G 9G27G 5G 7
 -19004273.88949 -14808488.40147  21388417.8294   21388418.1344
 -16013132.23749 -12477747.16647  21932135.7174   21932136.3904
  -8734740.58248  -6806269.02946  23366396.1164   23366397.7144
 -19597385.552 9 -15270674.431 9  21441976.520    21441975.078
   -246151.49949   -191805.31347  22674288.1534   22674288.5474
  -6864980.45048  -5349331.54045  23975391.6444   23975394.7654
  -1609218.78748  -1253933.75345  25006960.3364   25006962.0164
 -21945893.19349 -17100661.18148  20867626.6434   20867627.0734
 95  3 14  0  1  0.0000000  0  8G 4G 2G24G12G 9G27G 5G 7
 -19071092.25549 -14860554.63447  21375702.6184   21375702.9534
 -15973148.59749 -12446591.10147  21939744.5314   21939745.7914
  -8840044.57148  -6888323.99646  23346357.0464   23346359.0154
 -19653732.159 9 -15314580.871 9  21431254.087    21431252.687
   -327543.25549   -255227.44547  22658799.7604   22658799.8274
  -6749964.38748  -5259708.68045  23997278.8604   23997281.6604
  -1686504.96748  -1314156.69745  24992253.3044   24992255.9664
 -21897835.04649 -17063213.27648  20876771.7534   20876772.1764
 95  3 14  0  1 30.0000000  0  8G 4G 2G24G12G 9G27G 5G 7
 -19137487.80449 -14912291.39947  21363068.0794   21363068.1014
 -15932911.32649 -12415237.39747  21947401.3724   21947401.9474
  -8945241.43348  -6970295.45546  23326338.5984   23326341.2944
 -19709793.288 9 -15358264.858 9  21420585.970    21420584.603
   -408625.10849   -318408.08547  22643370.3824   22643370.5494
  -6634819.16448  -5169985.20746  24019190.3394   24019192.1924
  -1763825.82648  -1374406.63445  24977539.8374   24977542.9634
 -21849578.48449 -17025610.76548  20885954.6224   20885955.2864
 95  3 14  0  2  0.0000000  0  8G 4G 2G24G12G 9G27G 5G 7
 -19203456.10849 -14963695.24147  21350514.9854   21350514.7364
 -15892423.40149 -12383688.37647  21955105.8984   21955106.6514
  -9050326.59648  -7052179.91746  23306341.4874   23306343.0544
 -19765564.652 9 -15401723.057 9  21409972.933    21409971.684
   -489409.83549   -381357.20047  22627997.4704   22627997.8284
  -6519549.43648  -5080164.70146  24041125.2524   24041126.8154
  -1841187.36048  -1434688.27045  24962818.5384   24962819.4594
 -21801095.94749 -16987832.16848  20895180.6474   20895181.1294
 95  3 14  0  2 30.0000000  0  8G 4G 2G24G12G 9G27G 5G 7
 -19268982.07249 -15014754.39747  21338045.8914   21338045.7654
 -15851708.49149 -12351962.49347  21962853.8304   21962854.6424
  -9155315.99848  -7133989.75946  23286362.7764   23286365.4764
 -19821055.610 9 -15444962.762 9  21399413.319    21399412.119
   -569915.32949   -444088.72747  22612677.6204   22612677.9174
  -6404173.81548  -4990261.69545  24063080.4194   24063082.2784
  -1918603.39648  -1495012.40545  24948086.6924   24948088.9474
 -21752401.01149 -16949888.06548  20904447.1294   20904447.4934
 95  3 14  0  3  0.0000000  0  8G 4G 2G24G12G 9G27G 5G 7
 -19334059.58349 -15065464.11047  21325661.7874   21325661.9124
 -15810780.74749 -12320070.75847  21970642.0774   21970643.0894
  -9260207.19548  -7215723.05446  23266402.8324   23266404.9814
 -19876261.856 9 -15487980.612 9  21388907.915    21388906.639
   -650134.76049   -506597.35447  22597412.3354   22597412.4634
  -6288695.17448  -4900278.39945  24085055.0824   24085056.3814
  -1996086.93148  -1555389.11445  24933341.8954   24933341.7184
 -21703491.92749 -16911777.09148  20913754.1044   20913754.4434
 95  3 14  0  3 30.0000000  0  8G 4G 2G24G12G 9G27G 5G 7
 -19398695.21049 -15115829.50547  21313361.7524   21313362.1864
 -15769661.83649 -12288030.06747  21978466.6214   21978467.4044
  -9365006.22548  -7297384.58146  23246460.1174   23246462.6554
 -19931188.447 9 -15530780.546 9  21378455.810    21378454.472
   -730084.26149   -568895.65247  22582198.6354   22582198.1734
  -6173120.21748  -4810220.07645  24107047.9284   24107049.6804
  -2073671.49548  -1615844.58545  24918578.1964   24918577.8954
 -21654369.05349 -16873499.52848  20923101.6724   20923102.0834
 95  3 14  0  4  0.0000000  0  8G 4G 2G24G12G 9G27G 5G 7
 -19462876.70049 -15165841.03347  21301148.2394   21301148.3964
 -15728352.74149 -12255841.17647  21986327.6114   21986328.4294
  -9469713.82148  -7378974.83846  23226534.5694   23226537.9124
 -19985830.731 9 -15573358.938 9  21368057.736    21368056.355
   -809752.93249   -630975.13147  22567038.0914   22567037.9534
  -6057448.83748  -4720086.60846  24129059.4254   24129062.3964
  -2151356.07848  -1676377.96545  24903794.8414   24903797.0074
 -21605045.85449 -16835065.86548  20932487.6444   20932488.0984
 95  3 14  0  4 30.0000000  0  8G 4G 2G24G12G 9G27G 5G 7
 -19526583.28249 -15215482.50247  21289025.3364   21289025.6324
 -15686826.40849 -12223483.01447  21994229.8444   21994230.8354
  -9574315.10248  -7460482.26346  23206629.6124   23206631.7814
 -20040164.922 9 -15615697.258 9  21357718.250    21357716.903
   -889094.04649   -692799.37047  22551940.1094   22551940.0124
  -5941660.74548  -4629862.17845  24151093.2694   24151094.5414
  -2229106.23148  -1736962.42145  24888999.2774   24889000.0754
 -21555505.59849 -16796463.07048  20941914.8074   20941915.3434
 95  3 14  0  5  0.0000000  0  8G 4G 2G24G12G 9G27G 5G 7
 -19589825.55849 -15264762.17547  21276991.0984   21276991.0744
 -15645070.03749 -12190945.59947  22002175.8944   22002176.6814
  -9678806.81348  -7541904.31446  23186745.4954   23186748.7834
 -20094185.238 9 -15657790.999 9  21347438.548    21347437.198
   -968092.15649   -754356.31547  22536907.1254   22536907.3644
  -5825759.09448  -4539549.25645  24173148.5814   24173149.0834
  -2306912.65048  -1797590.72145  24874193.3354   24874194.7114
 -21505741.58349 -16757685.91748  20951384.5844   20951385.1104
 95  3 14  0  5 30.0000000  0  8G 4G 2G24G12G 9G27G 5G 7
 -19652574.64049 -15313657.53547  21265050.2294   21265050.0734
 -15603047.11249 -12158200.48247  22010172.7754   22010173.1784
  -9783166.92448  -7623223.82546  23166886.5484   23166888.9414
 -20147866.227 9 -15699620.330 9  21337223.423    21337222.018
  -1046728.32949   -815631.23647  22521943.0654   22521943.2634
  -5709720.74048  -4449129.85345  24195230.2904   24195232.8664
  -2384738.20848  -1858233.94745  24859383.6074   24859385.6074
 -21455739.72149 -16718723.43048  20960899.7984   20960900.2504
 95  3 14  0  6  0.0000000  0  8G 4G24G 2G12G 9G27G 5G 7
 -19714846.22449 -15362180.82647  21253199.9164   21253199.8124
  -9887407.69748  -7704450.34046  23147050.3024   23147051.6194
 -15560766.48349 -12125254.55347  22018218.5244   22018218.9204
 -20201222.605 9 -15741196.715 9  21327069.958    21327068.549
  -1125002.55849   -876624.10547  22507047.8634   22507048.3354
  -5593577.61748  -4358628.78845  24217331.8824   24217334.3974
  -2462583.28548  -1918892.40645  24844570.0654   24844571.0764
 -21405520.09249 -16679591.25348  20970456.2434   20970456.8044
 95  3 14  0  6 30.0000000  0  8G 4G 2G24G12G 9G27G 5G 7
 -19776639.01849 -15410331.03347  21241441.1234   21241441.6864
 -15518222.89249 -12092103.72247  22026313.9814   22026314.9214
  -9991506.42848  -7785566.18146  23127240.7534   23127243.2274
 -20254247.300 9 -15782514.646 9  21316979.691    21316978.257
  -1202905.71549   -937327.84047  22492223.6064   22492223.9954
  -5477330.92948  -4268047.04945  24239452.8844   24239452.6674
  -2540452.62448  -1979569.89445  24829752.2184   24829754.6244
 -21355079.82449 -16640287.14948  20980054.7224   20980055.1404
 95  3 14  0  7  0.0000000  0  8G 4G24G 2G12G 9G27G 5G 7
 -19837983.60549 -15458131.99447  21229767.7104   21229768.0424
 -10095474.96948  -7866580.58346  23107456.1564   23107456.9644
 -15475456.34649 -12058779.15947  22034452.3224   22034452.9654
 -20306969.194 9 -15823596.626 9  21306947.015    21306945.622
  -1280473.09749   -997769.94047  22477463.1694   22477463.3554
  -5360998.62448  -4177398.55645  24261590.1964   24261591.5264
  -2618392.56048  -2040302.15145  24814920.7184   24814923.1074
 -21304457.85249 -16600841.46048  20989687.7744   20989688.0594
 95  3 14  0  7 30.0000000  0  8G 4G24G 2G12G 9G 5G27G 7
 -19898857.36449 -15505566.07047  21218184.0534   21218184.0144
 -10199273.38148  -7947462.41646  23087704.0124   23087705.0094
 -15432447.68349 -12025265.93147  22042636.4464   22042637.2714
 -20359360.706 9 -15864421.172 9  21296977.209    21296975.857
  -1357684.78749  -1057934.88047  22462770.1954   22462770.4274
  -2696385.91348  -2101076.15945  24800079.0524   24800083.2534
  -5244542.68948  -4086653.76945  24283751.2184   24283751.3134
 -21253616.86149 -16561225.10648  20999362.5064   20999362.9904
 95  3 14  0  8  0.0000000  0  8G 4G24G 2G12G 9G 5G27G 7
 -19959259.56449 -15552632.70247  21206689.9544   21206690.1294
 -10302896.04748  -8028207.31346  23067985.3994   23067986.1094
 -15389207.75749 -11991572.50747  22050864.8224   22050865.7034
 -20411422.470 9 -15904988.769 9  21287070.182    21287068.769
  -1434550.91849  -1117830.54647  22448142.8564   22448143.0224
  -2774441.63948  -2161898.72245  24785225.4134   24785226.6184
  -5127965.27648  -3995814.29845  24305934.7384   24305937.6254
 -21202544.03049 -16521428.10148  21009081.4214   21009081.9514
 95  3 14  0  8 30.0000000  0  8G 4G24G 2G12G 9G 5G27G 7
 -20019199.98849 -15599339.51147  21195283.4164   21195283.6114
 -10406359.89948  -8108828.45546  23048297.0764   23048298.5744
 -15345759.71149 -11957716.90547  22059132.9124   22059133.7804
 -20463169.513 9 -15945311.130 9  21277223.109    21277221.656
  -1511103.28949  -1177481.70847  22433575.5544   22433575.7214
  -2852576.05648  -2222782.65845  24770356.6244   24770358.4004
  -5011270.55248  -3904883.44445  24328140.9124   24328142.1034
 -21151252.23949 -16481460.47648  21018841.8994   21018842.3724
 95  3 14  0  9  0.0000000  0  8G 4G24G 2G12G 9G 5G27G 7
 -20078669.73149 -15645679.55948  21183966.5834   21183966.8054
 -10509678.93648  -8189336.75746  23028636.2044   23028638.1544
 -15302097.22449 -11923694.20547  22067441.5984   22067442.1644
 -20514599.671 9 -15985386.567 9  21267436.297    21267434.832
  -1587352.07149  -1236896.31847  22419065.9294   22419066.3184
  -2930765.66048  -2283709.57845  24755477.7004   24755480.7354
  -4894464.15048  -3813865.52445  24350368.5294   24350367.2604
 -21099731.03349 -16441314.09048  21028645.9564   21028646.4434
 95  3 14  0  9 30.0000000  0  8G 4G24G 2G12G 9G 5G27G 7
 -20137657.30349 -15691643.88248  21172741.4484   21172741.7004
 -10612871.63448  -8269746.61046  23008998.8754   23009000.7524
 -15258217.81749 -11889502.48247  22075791.4884   22075791.9894
 -20565716.566 9 -16025217.904 9  21257709.049    21257707.573
  -1663303.95049  -1296079.58147  22404612.6714   22404612.0384
  -3009003.86248  -2344674.38445  24740589.4594   24740591.9804
  -4777575.66748  -3722783.70145  24372611.6854   24372614.3824
 -21047980.15949 -16400988.74248  21038493.9484   21038494.5114
 95  3 14  0 10  0.0000000  0  8G 4G24G 2G12G 9G 5G27G 7
 -20196137.06649 -15737212.51048  21161613.3894   21161613.5094
 -10715926.07348  -8350048.74146  22989387.8104   22989389.2794
 -15214104.24049 -11855128.28847  22084185.9534   22084187.2084
 -20616504.519 9 -16064792.921 9  21248044.380    21248042.887
  -1738934.32449  -1355012.33647  22390220.7694   22390220.3594
  -3087276.01348  -2405665.63245  24725694.4224   24725693.5124
  -4660602.87448  -3631636.12545  24394871.0194   24394871.3194
 -20996005.94249 -16360489.35548  21048384.1014   21048384.7574
 95  3 14  0 10 30.0000000  0  8G 4G24G 2G12G 9G 5G27G 7
 -20254111.11749 -15782387.07648  21150581.5144   21150581.4144
 -10818825.08748  -8430229.75146  22969806.4634   22969808.7084
 -15169744.65949 -11820562.40247  22092627.3184   22092628.2644
 -20666953.329 9 -16104103.671 9  21238444.202    21238442.815
  -1814213.17149  -1413671.16747  22375895.4074   22375895.5054
  -3165563.72248  -2466668.97045  24710796.8204   24710802.4444
  -4543545.91648  -3540423.00845  24417146.0354   24417147.3584
 -20943817.78049 -16319823.25948  21058315.1894   21058315.8224
 95  3 14  0 11  0.0000000  0  8G 4G24G 2G12G 9G 7G 5G27
 -20311613.55149 -15827194.15148  21139639.1564   21139639.0674
 -10921584.55348  -8510302.02546  22950252.1744   22950253.5904
 -15125153.89449 -11785816.36847  22101112.8334   22101113.5934
 -20717082.356 9 -16143165.247 9  21228904.878    21228903.589
  -1889139.62949  -1472055.39947  22361637.2114   22361637.7474
 -20891452.33949 -16279019.02148  21068279.9804   21068280.4284
  -3243895.00848  -2527706.29345  24695890.8884   24695891.5824
  -4426442.06748  -3449173.36045  24439430.1504   24439430.9844
 95  3 14  0 11 30.0000000  0  8G 4G24G 2G12G 9G 5G27G 7
 -20368650.60049 -15871638.58948  21128785.0514   21128785.2814
 -11024183.30948  -8590249.08546  22930728.5964   22930730.8464
 -15080338.87449 -11750895.59247  22109640.7244   22109641.2474
 -20766883.833 9 -16181971.593 9  21219428.031    21219426.743
  -1963688.97549  -1530145.76747  22347450.8434   22347451.2614
  -3322291.09548  -2588794.07445  24680972.9644   24680975.2534
  -4309291.63348  -3357887.38345  24461723.3754   24461724.1564
 -20838921.60149 -16238085.98748  21078276.3234   21078277.1214
 95  3 14  0 12  0.0000000  0  8G 4G24G 2G12G 9G 7G 5G27
 -20425238.34349 -15915732.92248  21118016.6904   21118016.9594
 -11126609.06548  -8670061.30946  22911238.0344   22911239.2764
 -15035308.44549 -11715806.97047  22118209.7294   22118210.7844
 -20816358.736 9 -16220523.466 9  21210013.328    21210012.033
  -2037868.60049  -1587948.05347  22333335.0294   22333335.3444
 -20786244.20149 -16197038.67048  21088300.4134   21088301.2334
  -3400751.22748  -2649931.76545  24666042.5674   24666044.4664
  -4192092.88148  -3266563.73145  24484025.6914   24484028.2004
 95  3 14  0 12 30.0000000  0  8G 4G24G 2G12G 9G 7G 5G27
 -20481356.62649 -15959461.44448  21107337.8734   21107337.8774
 -11228845.28349  -8749725.85146  22891783.1534   22891784.6944
 -14990048.78049 -11680539.72347  22126822.5714   22126823.3444
 -20865490.763 9 -16258808.161 9  21200663.842    21200662.442
  -2111662.57549  -1645449.83347  22319292.8744   22319293.2954
 -20733398.22649 -16155859.99748  21098356.7164   21098357.3284
  -3479260.20848  -2711107.51345  24651102.4904   24651102.4604
  -4074831.73148  -3175191.51445  24506340.0054   24506340.6374
 95  3 14  0 13  0.0000000  0  8G 4G24G 2G12G 9G 7G 5G27
 -20536976.12049 -16002801.29448  21096754.0404   21096753.7774
 -11330886.08448  -8829238.11346  22872365.0904   22872366.9014
 -14944544.02849 -11645081.50147  22135481.7164   22135482.5244
 -20914260.548 9 -16296810.588 9  21191383.251    21191381.854
  -2185058.76449  -1702641.64547  22305325.8834   22305326.2434
 -20680354.03849 -16114526.87548  21108450.7044   21108451.3284
  -3557824.01548  -2772325.99845  24636151.8814   24636154.5434
  -3957486.31548  -3083753.58045  24528670.3674   24528672.1974
 95  3 14  0 13 30.0000000  0  8G 4G24G 2G12G 9G 7G 5G27
 -20592077.40749 -16045737.34648  21086268.6304   21086268.5374
 -11432726.73348  -8908594.41946  22852985.1384   22852987.4434
 -14898788.14749 -11609427.58247  22144188.6504   22144189.8134
 -20962661.992 9 -16334525.997 9  21182172.770    21182171.343
  -2258068.42849  -1759532.27747  22291432.5094   22291432.3944
 -20627099.90449 -16073030.14948  21118584.7594   21118585.3644
  -3636437.14648  -2833582.94045  24621192.2214   24621194.2574
  -3840043.03148  -2992239.43945  24551019.4324   24551021.2524
 95  3 14  0 14  0.0000000  0  8G 4G24G 2G12G 9G 7G 5G27
 -20646655.53349 -16088265.74048  21075882.7774   21075882.7814
 -11534385.21748  -8987808.76946  22833639.7714   22833641.9574
 -14852774.31549 -11573572.67347  22152944.6774   22152946.1444
 -21010701.653 9 -16371959.490 9  21173031.129    21173029.658
  -2330706.89649  -1816133.66047  22277609.8714   22277609.9714
 -20573634.80949 -16031369.04248  21128758.9184   21128759.4714
  -3715095.08348  -2894874.77445  24606223.7774   24606225.4864
  -3722501.91848  -2900649.04545  24573387.1094   24573388.2314
 95  3 14  0 14 30.0000000  0  8G 4G24G 2G12G 9G 7G 5G27
 -20700740.63849 -16130409.96348  21065590.4254   21065590.4194
 -11635908.82648  -9066918.03046  22814320.3734   22814322.6194
 -14806534.45649 -11537541.63847  22161744.3324   22161745.4934
 -21058414.909 9 -16409138.643 9  21163951.630    21163950.157
  -2403001.42049  -1872467.04547  22263852.5864   22263852.4354
 -20519997.92349 -15989574.07047  21138965.4814   21138966.1594
  -3793850.52248  -2956242.53945  24591237.1414   24591240.5364
  -3604905.40248  -2809015.49245  24595764.9974   24595766.8244
 95  3 14  0 15  0.0000000  0  8G 4G24G 2G12G 9G 7G 5G27
 -20754303.54849 -16172147.27748  21055397.7514   21055397.7004
 -11737264.16548  -9145896.16546  22795033.3064   22795035.7734
 -14760039.24249 -11501311.62747  22170591.7914   22170593.1494
 -21105767.611 9 -16446036.849 9  21154940.664    21154939.307
  -2474929.33749  -1928514.76247  22250165.3664   22250165.5254
 -20466172.09249 -15947631.87247  21149208.2514   21149209.0214
  -3872665.36448  -3017656.62445  24576239.5514   24576242.4964
  -3487230.11048  -2717320.55445  24618157.9794   24618161.1404
 95  3 14  0 15 30.0000000  0  8G 4G24G 2G12G 9G 7G 5G27
 -20807330.79549 -16213467.19248  21045307.1714   21045307.0524
 -11838422.54949  -9224720.84146  22775783.7684   22775786.7214
 -14713273.41149 -11464870.73847  22179491.3544   22179492.4554
 -21152744.721 9 -16482642.387 9  21146001.166    21145999.836
  -2546482.05549  -1984270.10947  22236549.1884   22236549.4824
 -20412152.42749 -15905538.63147  21159487.9224   21159488.4464
  -3951508.92348  -3079093.08245  24561236.3794   24561238.7864
  -3369477.43248  -2625565.34445  24640566.1274   24640567.8394
 95  3 14  0 16  0.0000000  0  8G 4G24G 2G12G 9G 7G 5G27
 -20859851.01849 -16254392.01448  21035312.9104   21035312.7364
 -11939404.58749  -9303408.10446  22756567.5864   22756568.6404
 -14666253.67949 -11428232.00047  22188438.8454   22188440.0454
 -21199363.371 9 -16518968.602 9  21137129.938    21137128.536
  -2617672.14549  -2039742.89247  22223001.8994   22223002.1004
 -20357960.38149 -15863311.06947  21169800.2594   21169800.7844
  -4030402.23548  -3140568.29145  24546222.8934   24546226.9034
  -3251672.11148  -2533769.05745  24662982.9274   24662985.6424
 95  3 14  0 16 30.0000000  0  8G 4G24G 2G12G 9G 7G 5G27
 -20911862.80449 -16294920.65748  21025415.2864   21025415.1704
 -12040197.14249  -9381947.71746  22737387.2414   22737389.0024
 -14618978.83149 -11391394.47347  22197434.8884   22197435.5634
 -21245614.805 9 -16555008.675 9  21128328.569    21128327.165
  -2688490.60349  -2094926.09447  22209525.9974   22209525.4194
 -20303585.11349 -15820940.73047  21180147.5434   21180148.2464
  -4109339.52348  -3202077.78945  24531201.8354   24531201.7534
  -3133814.26348  -2441931.87645  24685410.2564   24685414.6984
 95  3 14  0 17  0.0000000  0  8G 4G24G 2G12G 9G 7G 5G27
 -20963373.09349 -16335058.52548  21015613.1134   21015613.1644
 -12140797.94749  -9460337.91546  22718243.5234   22718244.8714
 -14571448.02149 -11354357.50147  22206479.5054   22206480.7814
 -21291500.710 9 -16590763.920 9  21119596.755    21119595.407
  -2758943.28249  -2149824.27747  22196119.3724   22196119.0574
 -20249015.53249 -15778418.98247  21190531.7324   21190532.4144
  -4188310.68548  -3263613.69245  24516174.1594   24516175.0954
  -3015904.79548  -2350054.52345  24707848.2994   24707853.9874
 95  3 14  0 17 30.0000000  0  8G 4G24G 2G12G 9G 7G 5G27
 -21014389.37149 -16374811.44648  21005904.9304   21005905.0004
 -12241218.08049  -9538587.33546  22699134.1964   22699135.3454
 -14523672.39949 -11317129.77047  22215570.9474   22215572.3244
 -21337032.789 9 -16626243.458 9  21110932.342    21110930.985
  -2829035.81049  -2204441.83347  22182781.0114   22182780.5584
 -20194253.67849 -15735747.41347  21200952.5544   21200953.0554
  -4267333.06048  -3325189.49645  24501136.6204   24501137.7564
  -2897951.38148  -2258142.82845  24730293.7874   24730295.1654
 95  3 14  0 18  0.0000000  0  8G 4G24G 2G12G 9G 7G 5G27
 -21064894.12749 -16414165.77848  20996294.4424   20996294.2894
 -12341459.34949  -9616697.37846  22680058.6694   22680060.7494
 -14475652.48249 -11279711.67747  22224708.8934   22224709.7434
 -21382205.757 9 -16661443.165 9  21102336.232    21102334.807
  -2898762.64749  -2258774.42947  22169512.4864   22169512.2834
 -20139304.07849 -15692929.54647  21211409.1874   21211409.8324
  -4346402.77148  -3386802.16745  24486089.9634   24486092.6984
  -2779947.46648  -2166191.85745  24752749.5964   24752753.5384
 95  3 14  0 18 30.0000000  0  8G12G24G 2G 9G 7G 5G27G 4
 -21427003.490 9 -16696350.481 9  21093811.441    21093810.106
 -12441490.02049  -9694643.32646  22661023.3814   22661025.0264
 -14427386.51649 -11242101.85447  22233893.6704   22233894.4514
  -2968115.27449  -2312815.42647  22156315.2034   22156315.3504
 -20084163.70549 -15649963.02447  21221902.0554   21221902.4874
  -4425505.13348  -3448440.30645  24471036.5964   24471036.1274
  -2661892.11648  -2074200.81645  24775214.0044   24775215.7514
 -21114858.78649 -16453099.25648  20986786.5954   20986786.3804
 95  3 14  0 19  0.0000000  0  8G12G24G 2G 9G 7G 5G27G 4
 -21471433.976 9 -16730971.633 9  21085356.557    21085355.268
 -12541311.82449  -9772426.51246  22642027.7704   22642029.7264
 -14378890.82049 -11204313.01547  22243122.1174   22243122.7834
  -3037101.85149  -2366571.18047  22143187.5614   22143188.0014
 -20028860.79349 -15606869.85247  21232425.8374   21232426.0874
  -4504652.22948  -3510113.34445  24455975.3204   24455976.3074
  -2543807.16048  -1982186.67645  24797683.7664   24797688.3984
 -21164294.42249 -16491620.50748  20977378.9694   20977379.0304
 95  3 14  0 19 30.0000000  0  8G12G24G 2G 9G 7G 5G27G 4
 -21515509.909 9 -16765316.509 9  21076969.221    21076967.894
 -12640933.75549  -9850053.96346  22623070.7954   22623072.8304
 -14330185.32749 -11166360.70947  22252390.4304   22252391.2984
  -3105729.30449  -2420047.10447  22130128.1724   22130127.8194
 -19973423.79149 -15563672.19947  21242975.0324   21242975.5554
  -4583868.87948  -3571840.50845  24440901.8124   24440903.0564
  -2425716.61548  -1890168.19745  24820154.9064   24820161.7294
 -21213220.59349 -16529744.77348  20968068.5634   20968068.5174
 95  3 14  0 20  0.0000000  0  8G12G24G 2G 9G 7G 5G27G 4
 -21559211.417 9 -16799369.623 9  21068653.095    21068651.743
 -12740340.00549  -9927513.35046  22604154.6614   22604156.6374
 -14281248.44749 -11128228.10047  22261702.9934   22261704.3524
  -3173973.56849  -2473224.44747  22117141.7514   22117141.5844
 -19917841.43049 -15520361.28047  21253551.9644   21253552.3044
  -4663133.84748  -3633605.35045  24425817.7874   24425818.3914
  -2307608.55748  -1798136.04144  24842629.8754   24842636.8924
 -21261637.02149 -16567471.83448  20958855.1354   20958854.8944
 95  3 14  0 20 30.0000000  0  8G12G24G 2G 9G 7G 5G27G 4
 -21602506.171 9 -16833105.790 9  21060414.305    21060412.997
 -12839494.08049 -10004776.22846  22585286.4974   22585287.8024
 -14232043.47049 -11089886.57547  22271066.6114   22271067.1304
  -3241791.90349  -2526069.89147  22104235.9954   22104236.2544
 -19862077.06349 -15476908.53647  21264163.7564   21264164.0914
  -4742411.09548  -3695379.78345  24410731.4114   24410732.4764
  -2189439.67248  -1706056.49145  24865116.6534   24865125.6524
 -21309541.18349 -16604799.73048  20949739.2984   20949739.2834
 95  3 14  0 21  0.0000000  0  8G12G24G 2G 9G 7G 5G27G 4
 -21645414.484 9 -16866540.834 9  21052249.109    21052247.783
 -12938433.79249 -10081872.06246  22566458.7914   22566460.3264
 -14182585.87949 -11051348.21147  22280477.8774   22280479.1034
  -3309185.38349  -2578584.26247  22091411.2584   22091411.5934
 -19806140.63049 -15433321.71547  21274808.0744   21274808.7544
  -4821720.66548  -3757179.39445  24395639.5154   24395640.7334
  -2071211.24348  -1613930.47745  24887614.9344   24887618.8014
 -21356958.63749 -16641748.37248  20940716.1674   20940716.0314
 95  3 14  0 21 30.0000000  0  8G12G24G 2G 9G 7G 5G27G 4
 -21687913.002 9 -16899656.556 9  21044161.959    21044160.589
 -13037138.32349 -10158784.64146  22547675.4594   22547677.0234
 -14132852.32549 -11012594.81647  22289942.0984   22289943.3864
  -3376131.73149  -2630750.21647  22078671.9214   22078672.1584
 -19749999.30349 -15389575.23547  21285491.5254   21285492.0694
  -4901045.57348  -3818990.95046  24380544.8804   24380546.0354
  -1952890.43448  -1521732.58245  24910131.5044   24910131.0134
 -21403847.88449 -16678285.42448  20931793.4374   20931793.2944
 95  3 14  0 22  0.0000000  0  8G12G24G 2G 9G 7G 5G27G 4
 -21730036.683 9 -16932480.199 9  21036146.085    21036144.739
 -13135642.53349 -10235541.12446  22528930.5394   22528932.2874
 -14082882.37449 -10973657.20547  22299450.9264   22299451.6304
  -3442672.06049  -2682599.80547  22066010.0704   22066010.1224
 -19693688.14749 -15345696.42147  21296207.0674   21296207.7284
  -4980417.86648  -3880839.45445  24365440.7504   24365442.5524
  -1834506.65448  -1429485.63444  24932660.8574   24932659.2744
 -21450222.88749 -16714421.76948  20922968.5134   20922968.5434
 95  3 14  0 22 30.0000000  0  8G12G24G 2G 9G 7G 5G27G 4
 -21771805.260 9 -16965027.134 9  21028197.789    21028196.410
 -13233965.26549 -10312156.19946  22510220.0454   22510222.5664
 -14032696.89149 -10934551.65147  22309000.8634   22309002.4114
  -3508823.36949  -2734146.27247  22053421.9244   22053421.2324
 -19637236.54449 -15301708.16847  21306949.5274   21306950.0464
  -5059865.99448  -3942747.04046  24350322.1264   24350323.3134
  -1716089.79048  -1337212.80644  24955195.2674   24955196.3824
 -21496075.32849 -16750150.92548  20914242.8514   20914242.7374
 95  3 14  0 23  0.0000000  0  8G12G24G 2G 9G 7G 5G27G 4
 -21813210.318 9 -16997290.809 9  21020318.663    21020317.347
 -13332101.40849 -10388625.87746  22491545.1704   22491547.4564
 -13982288.15249 -10895272.13747  22318593.2874   22318594.0794
  -3574583.86249  -2785388.20247  22040907.9274   22040907.4764
 -19580649.63549 -15257614.48347  21317717.6174   21317718.2024
  -5139403.40448  -4004724.21445  24335186.6524   24335188.2834
  -1597662.79848  -1244932.15644  24977732.3104   24977732.9494
 -21541374.05649 -16785448.61348  20905622.8684   20905622.6474
 95  3 14  0 23 30.0000000  0  8G24G 2G12G 9G 7G 5G27G 4
 -13430017.07449 -10464923.75346  22472912.5644   22472915.1624
 -13931642.56149 -10855808.05747  22328230.7624   22328231.6394
 -21854231.681 9 -17029255.502 9  21012512.540    21012511.181
  -3639948.20349  -2836321.43847  22028469.3974   22028469.6114
 -19523930.75349 -15213417.96047  21328510.9094   21328511.4914
  -5218998.16948  -4066746.07245  24320040.0554   24320041.0744
  -1479235.06748  -1152650.95045  25000268.2314   25000268.3654
 -21586105.99849 -16820304.65048  20897110.7994   20897110.7124
 95  3 14  0 24  0.0000000  0  8G24G 2G12G 9G 7G 5G27G 4
 -13527733.83749 -10541066.63947  22454318.0514   22454319.7314
 -13880766.86449 -10816164.67947  22337912.2084   22337913.5254
 -21894882.379 9 -17060931.361 9  21004776.941    21004775.549
  -3704917.18249  -2886946.59747  22016106.2744   22016106.3334
 -19467117.29749 -15169147.74147  21339322.2094   21339322.8874
  -5298652.91148  -4128814.63345  24304882.2194   24304883.9144
  -1360833.70548  -1060390.27444  25022799.4194   25022799.7584
 -21630307.99049 -16854747.73848  20888699.5554   20888699.4434
 95  3 14  0 24 30.0000000  0  8G12G24G 2G 9G 7G 5G27G 4
 -21935145.134 9 -17092304.931 9  20997115.214    20997113.799
 -13625231.62249 -10617038.89047  22435765.2254   22435766.9314
 -13829648.77649 -10776332.41547  22347639.6424   22347640.9364
  -3769471.90449  -2937248.96847  22003821.8994   22003822.2664
 -19410195.48849 -15124793.09147  21350153.8504   21350154.7374
  -5378351.48848  -4190917.37446  24289716.3124   24289716.7704
  -1242456.79848   -968148.65145  25045326.9124   25045330.3844
 -21673984.84349 -16888781.62648  20880388.0174   20880388.0134
 95  3 14  0 25  0.0000000  0  8G12G24G 2G 9G 7G 5G27G 4
 -21974980.993 9 -17123345.850 9  20989534.706    20989533.276
 -13722464.46449 -10692804.70847  22417262.5494   22417264.0474
 -13778261.17949 -10736290.15447  22357418.5734   22357419.1994
  -3833585.61249  -2987207.68347  21991621.3644   21991621.5044
 -19353119.06949 -15080317.96847  21361015.4824   21361016.2524
  -5458041.42348  -4253013.37745  24274551.7224   24274551.0674
  -1124059.98548   -875891.54445  25067856.9684   25067860.1764
 -21717121.20349 -16922394.34948  20872179.1584   20872179.1184
 95  3 14  0 25 30.0000000  0  8G 7G24G 2G 9G 5G27G 4G12
 -19295892.21449 -15035725.61947  21371905.2754   21371906.0324
 -13819442.75349 -10768372.16347  22398808.0344   22398809.0964
 -13726623.31849 -10696052.87947  22367244.6454   22367245.8144
  -3897269.40749  -3036831.40647  21979502.6264   21979502.7924
  -5537732.02548  -4315109.92646  24259386.8654   24259387.7934
  -1005643.80548   -783619.30944  25090390.9204   25090398.0484
 -21759739.03049 -16955603.02348  20864069.3814   20864069.3754
 -22014406.684 9 -17154067.159 9  20982032.218    20982030.866
 95  3 14  0 26  0.0000000  0  8G 7G24G 2G 9G 5G27G 4G12
 -19238496.85349 -14991001.96547  21382827.2394   21382827.9684
 -13916172.61149 -10843746.04847  22380400.2084   22380402.4174
 -13674726.94849 -10655614.16847  22377119.9614   22377121.1234
  -3960527.76149  -3086123.62447  21967465.1924   21967465.0384
  -5617451.32548  -4377228.80346  24244217.0634   24244218.9214
   -887207.94848   -691331.78845  25112928.0044   25112925.2154
 -21801833.23749 -16988403.68548  20856059.2734   20856059.0864
 -22053426.506 9 -17184472.212 9  20974606.933    20974605.709
 95  3 14  0 26 30.0000000  0  8G 7G24G 2G 9G 5G27G 4G12
 -19180924.87349 -14946140.68147  21393782.7224   21393783.1314
 -14012647.35449 -10918921.14047  22362041.0804   22362043.5094
 -13622581.66049 -10614981.50147  22387043.4074   22387044.9014
  -4023387.85049  -3135105.50547  21955503.2184   21955503.0644
  -5697221.34148  -4439387.19746  24229037.0264   24229038.5534
   -768756.82948   -599032.35345  25135468.0124   25135472.4444
 -21843398.12049 -17020791.88548  20848149.7514   20848149.4074
 -22092050.288 9 -17214568.665 9  20967257.082    20967255.800
 95  3 14  0 27  0.0000000  0  8G 7G24G 2G 9G 5G27G 4G12
 -19123165.67849 -14901133.51847  21404773.9964   21404774.6774
 -14108852.05549 -10993885.81447  22343733.7474   22343736.3204
 -13570167.82249 -10574139.57347  22397016.9984   22397018.6474
  -4085831.70949  -3183763.05147  21943620.6204   21943620.6424
  -5777042.22848  -4501585.23645  24213847.4824   24213848.1934
   -650280.28948   -506713.18244  25158014.6604   25158017.2684
 -21884408.56749 -17052748.06048  20840345.5454   20840345.3434
 -22130265.475 9 -17244346.728 9  20959984.968    20959983.678
 95  3 14  0 27 30.0000000  0  8G 7G24G 2G 9G 5G27G 4G12
 -19065230.83049 -14855989.48647  21415798.5124   21415798.9734
 -14204790.24949 -11068642.81647  22325477.7294   22325479.4924
 -13517476.81249 -10533081.66447  22407043.9084   22407045.4524
  -4147851.88749  -3232090.44647  21931818.6204   21931818.7634
  -5856929.50348  -4563835.02846  24198645.5114   24198647.8424
   -531805.91847   -414395.62444  25180557.6274   25180561.0544
 -21924862.19049 -17084270.34448  20832647.4684   20832647.4514
 -22168075.086 9 -17273808.757 9  20952790.113    20952788.755
 95  3 14  0 28  0.0000000  0  7G 7G24G 2G 9G 5G 4G12
 -19007140.35449 -14810724.18747  21426852.9904   21426853.5114
 -14300473.65349 -11143201.29147  22307270.1284   22307271.3384
 -13464527.37649 -10491822.39147  22417119.7394   22417121.2174
  -4209457.85549  -3280095.07047  21920095.2454   21920095.3704
  -5936877.05748  -4626131.78546  24183431.9364   24183434.0494
 -21964773.34849 -17115369.92948  20825052.7144   20825052.5804
 -22205484.987 9 -17302959.324 9  20945671.222    20945669.839
 95  3 14  0 28 30.0000000  0  8G 7G24G 2G 9G 5G26G 4G12
 -18948905.07649 -14765346.05147  21437934.8324   21437935.5064
 -14395906.56949 -11217564.57747  22289110.2244   22289111.0134
 -13411341.44149 -10450378.83547  22427240.7794   22427242.1594
  -4270634.48149  -3327765.14247  21908453.8134   21908453.9324
  -6016871.93348  -4688465.39846  24168209.3244   24168208.9224
        -0.66258        -0.27956  24299776.3314   24299778.5744
 -22004139.71649 -17146044.99948  20817561.5794   20817561.1894
 -22242494.124 9 -17331797.606 9  20938628.629    20938627.239
 95  3 14  0 29  0.0000000  0  8G 7G24G 2G 9G 5G26G 4G12
 -18890505.57849 -14719839.95747  21449047.7584   21449048.4014
 -14491078.58549 -11291724.55847  22270999.6814   22271000.2204
 -13357902.05149 -10408737.77347  22437409.6974   22437411.6594
  -4331346.63449  -3375073.29747  21896900.6794   21896900.3764
  -6096883.29948  -4750811.87946  24152983.8214   24152985.7634
     65666.86948     51169.20546  24312273.2034   24312272.7814
 -22042945.99449 -17176283.63848  20810176.9974   20810176.7174
 -22279076.816 9 -17360303.594 9  20931667.167    20931665.808
 95  3 14  0 29 30.0000000  0  8G 7G24G 2G 9G 5G26G 4G12
 -18831975.01349 -14674231.73047  21460185.8254   21460186.5094
 -14586021.32649 -11365705.88747  22252932.5824   22252933.6054
 -13304235.66249 -10366919.82647  22447622.3314   22447623.7814
  -4391617.52549  -3422037.61747  21885431.6434   21885431.3434
  -6176921.09648  -4813178.94245  24137752.6804   24137753.8504
    131419.31248    102404.82946  24324785.0524   24324786.5114
 -22081214.32949 -17206103.10248  20802894.5234   20802894.3444
 -22315255.849 9 -17388495.043 9  20924782.536    20924781.181
 95  3 14  0 30  0.0000000  0  8G 9G24G 2G 7G 5G26G 4G12
  -4451433.39349  -3468647.37247  21874048.8434   21874048.7094
 -14680724.48549 -11439500.52947  22234910.6544   22234912.0304
 -13250334.96649 -10324919.30846  22457879.3564   22457881.1224
 -18773309.90049 -14628518.66147  21471349.4044   21471349.9284
  -6256973.72348  -4875557.54546  24122519.2894   24122521.7004
    197274.31148    153720.37546  24337317.1824   24337316.5844
 -22118911.81649 -17235477.74548  20795721.0504   20795720.9224
 -22351015.019 9 -17416359.326 9  20917977.724    20917976.417
 95  3 14  0 30 30.0000000  0  8G 9G24G 2G 7G 5G26G 4G12
  -4510800.66949  -3514907.57147  21862751.5534   21862751.4204
 -14775193.29249 -11513112.55447  22216933.7614   22216935.7134
 -13196187.86449 -10282726.79647  22468183.1794   22468185.1484
 -18714532.32749 -14582717.96047  21482534.4184   21482534.8474
  -6337064.79748  -4937966.15845  24107278.5954   24107280.0534
    263220.21148    205106.74645  24349866.2744   24349870.3244
 -22156041.45049 -17264409.90348  20788655.4614   20788655.2834
 -22386359.428 9 -17443900.422 9  20911251.898    20911250.635
 95  3 14  0 31  0.0000000  0  8G24G 2G 9G 7G 5G26G 4G12
 -14869399.99449 -11586520.34047  22199006.9494   22199008.7624
 -13141759.78949 -10240315.33447  22478540.6224   22478542.2364
  -4569714.32249  -3560814.29947  21851540.4544   21851540.4734
 -18655637.84249 -14536826.15347  21493741.7234   21493741.9164
  -6417189.42848  -5000400.90846  24092031.4364   24092034.2404
    329267.25648    256571.93545  24362434.8154   24362435.2554
 -22192596.99249 -17292894.71748  20781699.0504   20781698.8084
 -22421271.658 9 -17471104.753 9  20904608.323    20904607.047
 95  3 14  0 31 30.0000000  0  8G24G 2G 9G 7G 5G26G 4G12
 -14963332.12049 -11659714.17147  22181132.5674   22181134.1804
 -13087048.60849 -10197683.27846  22488951.8294   22488953.4614
  -4628175.24449  -3606368.25247  21840415.8884   21840415.5444
 -18596637.32349 -14490851.72047  21504969.1394   21504969.4544
  -6497353.39048  -5062866.28746  24076777.0304   24076777.8024
    395401.08348    308104.74045  24375020.2004   24375022.3534
 -22228574.99849 -17320929.50848  20774852.7544   20774852.4594
 -22455751.357 9 -17497972.044 9  20898047.106    20898045.683
 95  3 14  0 32  0.0000000  0  8G24G 2G 9G 7G 5G26G 4G12
 -15056971.41149 -11732679.80947  22163313.6934   22163315.5404
 -13032046.73549 -10154824.69647  22499418.6804   22499419.6274
  -4686185.93149  -3651571.38447  21829376.8754   21829376.5274
 -18537523.43149 -14444788.95847  21516218.0584   21516218.8254
  -6577553.04648  -5125359.49646  24061514.9024   24061515.5544
    461623.48648    359706.55045  24387622.7704   24387624.2464
 -22263976.98649 -17348515.45748  20768115.9264   20768115.7984
 -22489786.237 9 -17524492.720 9  20891570.484    20891569.093
 95  3 14  0 32 30.0000000  0  8G24G 2G 9G 7G 5G26G 4G12
 -15150344.97149 -11805438.39447  22145545.1904   22145546.4474
 -12976790.01249 -10111767.54146  22509933.3254   22509934.7724
  -4743787.24549  -3696455.52647  21818415.4834   21818414.9644
 -18478312.88849 -14398650.88247  21527485.3774   21527486.1484
  -6657822.95148  -5187907.42746  24046240.1784   24046240.2944
    527901.48948    411351.70245  24400234.2024   24400232.6854
 -22298864.71149 -17375700.68248  20761476.9954   20761476.8794
 -22523410.975 9 -17550693.806 9  20885171.858    20885170.543
 95  3 14  0 33  0.0000000  0  8G24G 2G 9G 7G 5G26G 4G12
 -15243424.39749 -11877967.77147  22127832.4644   22127833.8754
 -12921266.78749 -10068502.71546  22520499.2854   22520501.1064
  -4800950.37749  -3740998.21947  21807537.6884   21807537.6154
 -18418957.55249 -14352399.98247  21538780.2344   21538780.8504
  -6738123.02648  -5250478.88846  24030959.6824   24030959.9474
    594271.48648    463068.55045  24412863.9174   24412866.6164
 -22333200.32349 -17402455.68648  20754943.3494   20754942.8674
 -22556595.755 9 -17576552.067 9  20878857.000    20878855.709
 95  3 14  0 33 30.0000000  0  8G24G 2G 9G 7G 5G26G 4G12
 -15336211.61749 -11950269.45347  22110175.4294   22110176.7144
 -12865481.96249 -10025034.04446  22531114.5044   22531116.4804
  -4857676.67149  -3785200.51447  21796743.1064   21796743.1644
 -18359461.86649 -14306039.71447  21550102.0394   21550102.5124
  -6818437.56248  -5313061.58546  24015676.0894   24015678.1714
    660740.84648    514862.80845  24425513.4024   24425515.8884
 -22366968.75349 -17428768.73048  20748517.3764   20748517.0914
 -22589334.792 9 -17602062.997 9  20872626.950    20872625.660
 95  3 14  0 34  0.0000000  0  8G24G 2G 9G 7G 5G26G 4G12
 -15428695.45549 -12022334.73547  22092576.5794   22092577.4444
 -12809428.73949  -9981356.23046  22541781.2754   22541782.5024
  -4913956.85149  -3829055.18947  21786033.3104   21786032.8424
 -18299808.76149 -14259556.78047  21561453.7374   21561454.2684
  -6898755.45748  -5375646.92346  24000392.4314   24000393.6014
    727326.86348    566747.98145  24438182.8274   24438184.1534
 -22400148.65049 -17454623.17848  20742203.1974   20742203.0744
 -22621615.689 9 -17627216.933 9  20866484.124    20866482.740
 95  3 14  0 34 30.0000000  0  8G24G 2G 9G 7G 5G26G 4G12
 -15520916.56649 -12094195.29147  22075027.6234   22075028.4004
 -12753150.54949  -9937503.11546  22552490.4894   22552491.3644
  -4969815.68349  -3872581.54647  21775403.8434   21775403.3374
 -18240032.88949 -14212978.18447  21572828.5784   21572828.9144
  -6979115.24948  -5438264.89546  23985100.1754   23985100.8194
    793981.91248    618686.93845  24450866.1274   24450866.6634
 -22432766.94949 -17480040.01848  20735996.1944   20735995.8374
 -22653476.995 9 -17652043.916 9  20860421.065    20860419.679
 95  3 14  0 35  0.0000000  0  8G24G 2G 9G 7G 5G26G 4G12
 -15612891.02449 -12165863.64947  22057525.5514   22057526.3014
 -12696664.16149  -9893487.78046  22563239.3734   22563241.0124
  -5025256.67949  -3915782.31347  21764853.5644   21764853.5854
 -18180165.21049 -14166328.04847  21584221.0174   21584221.4574
  -7059526.36248  -5500922.86846  23969798.6184   23969799.9964
    860685.76948    670663.91445  24463560.2854   24463561.9074
 -22464825.48849 -17505020.68048  20729895.7954   20729895.3554
 -22684932.088 9 -17676554.372 9  20854435.338    20854434.017
 95  3 14  0 35 30.0000000  0  8G24G 2G 9G 7G 5G26G 4G12
 -15704588.93149 -12237316.51847  22040075.8564   22040076.6664
 -12639935.44249  -9849283.60946  22574034.9074   22574036.5994
  -5080258.60849  -3958640.94647  21754387.1794   21754387.2284
 -18120189.68949 -14119593.88647  21595633.8314   21595634.7264
  -7139977.61548  -5563612.11646  23954488.9354   23954489.4504
    927445.96148    722684.83545  24476264.1294   24476264.5684
 -22496316.17649 -17529558.86148  20723903.0454   20723902.8174
 -22715959.676 9 -17700731.711 9  20848530.977    20848529.694
 95  3 14  0 36  0.0000000  0  8G24G 2G 9G 7G 5G26G 4G12
 -15796005.44149 -12308550.11147  22022679.8284   22022681.3434
 -12582953.04449  -9804881.75546  22584878.1954   22584879.6064
  -5134795.55049  -4001137.24947  21744009.3724   21744009.2154
 -18060077.49049 -14072753.21647  21607072.8704   21607073.6064
  -7220457.52948  -5626323.69946  23939174.2694   23939174.6074
    994247.23248    774737.69645  24488975.7904   24488975.4964
 -22527245.81349 -17553659.86248  20718017.2504   20718016.9624
 -22746551.465 9 -17724569.467 9  20842709.574    20842708.254
 95  3 14  0 36 30.0000000  0  8G24G 2G 9G 7G 5G26G 4G12
 -15887120.41549 -12379548.75047  22005341.0674   22005342.4304
 -12525693.52349  -9760263.97146  22595774.4424   22595775.8804
  -5188831.93549  -4043243.51447  21733726.4284   21733726.0854
 -17999812.77349 -14025793.70947  21618541.1614   21618541.9964
  -7300946.87348  -5689042.61346  23923857.6564   23923858.0794
   1061088.85748    826822.00545  24501696.1994   24501695.1974
 -22557610.65549 -17577320.76148  20712239.1394   20712238.8874
 -22776687.020 9 -17748051.714 9  20836974.916    20836973.595
 95  3 14  0 37  0.0000000  0  8G24G 2G 9G 7G 5G26G 4G12
 -15977943.34249 -12450319.81747  21988058.0254   21988059.6184
 -12468161.13949  -9715433.56746  22606722.5504   22606723.6274
  -5242383.14049  -4084971.71047  21723535.6464   21723535.6594
 -17939415.97549 -13978731.27347  21630034.3584   21630034.9244
  -7381458.75648  -5751779.09046  23908536.6754   23908537.9264
   1127947.91648    878919.96745  24514418.2764   24514420.6394
 -22587425.96449 -17600553.45648  20706565.5904   20706565.2674
 -22806379.236 9 -17771188.502 9  20831324.711    20831323.376
 95  3 14  0 37 30.0000000  0  8G24G 2G 9G 7G 5G26G 4G12
 -16068492.59249 -12520877.63047  21970826.7374   21970828.3364
 -12410382.59449  -9670411.33746  22617717.3954   22617718.3344
  -5295476.22749  -4126342.93547  21713432.3044   21713432.1864
 -17878914.67549 -13931587.41147  21641547.2264   21641547.8374
  -7462017.96648  -5814552.45746  23893206.3664   23893206.6504
   1194800.72348    931013.00845  24527140.0114   24527141.5854
 -22616707.08349 -17623369.86348  20700993.5044   20700992.2234
 -22835646.940 9 -17793994.502 9  20825755.231    20825753.959
 95  3 14  0 38  0.0000000  0  8G24G 2G 9G 7G 5G26G 4G12
 -16158737.19949 -12591198.06247  21953653.7664   21953654.8144
 -12352351.39149  -9625192.24246  22628760.2154   22628762.2374
  -5348071.09349  -4167325.93647  21703424.2214   21703423.8294
 -17818294.22249 -13884350.70247  21653082.7144   21653083.5324
  -7542602.83248  -5877345.80946  23877871.9164   23877873.1004
   1261684.50548    983130.18645  24539868.2084   24539869.8394
 -22645416.30049 -17645740.68948  20695530.2214   20695530.0674
 -22864460.392 9 -17816446.542 9  20820272.188    20820270.972
 95  3 14  0 38 30.0000000  0  8G24G 2G 9G 7G 5G26G 4G12
 -16248671.40649 -12661276.62447  21936539.9774   21936541.1164
 -12294079.41349  -9579785.52846  22639849.2624   22639850.3614
  -5400179.69849  -4207930.03747  21693508.1834   21693508.0974
 -17757582.06449 -13837042.53847  21664636.0614   21664636.8494
  -7623239.97848  -5940179.91246  23862527.0154   23862527.8534
   1328608.68848   1035278.86945  24552604.5444   24552605.2544
 -22673548.87449 -17667662.15848  20690176.8904   20690176.4854
 -22892823.162 9 -17838547.401 9  20814874.970    20814873.643
 95  3 14  0 39  0.0000000  0  8G24G 2G 9G 7G 5G26G 4G12
 -16338297.44049 -12731115.04947  21919484.8694   21919485.5104
 -12235570.58149  -9534194.24946  22650982.9384   22650984.7714
  -5451819.74949  -4248169.02747  21683681.1944   21683681.1074
 -17696782.76249 -13789666.45947  21676205.7204   21676206.3464
  -7703916.37448  -6003044.59546  23847174.9234   23847175.3064
   1395594.97648   1087475.90245  24565351.8384   24565351.5114
 -22701096.84049 -17689128.08748  20684934.7564   20684934.1674
 -22920731.840 9 -17860294.417 9  20809564.139    20809562.743
 95  3 14  0 39 30.0000000  0  8G24G 2G 9G 7G 5G26G 4G12
 -16427579.04649 -12800685.09447  21902495.0724   21902496.1114
 -12176797.44349  -9488397.02846  22662166.9674   22662168.3974
  -5502965.54849  -4288022.87847  21673948.4534   21673948.6234
 -17635867.30349 -13742199.87447  21687797.5654   21687797.9684
  -7784602.98048  -6065917.22146  23831820.5174   23831820.5634
   1462669.29348   1139741.52345  24578114.8834   24578117.6244
 -22728038.57349 -17710121.62648  20679807.5794   20679807.2174
 -22948157.619 9 -17881665.150 9  20804345.188    20804343.795
 95  3 14  0 40  0.0000000  0  8G24G 2G 9G 7G 5G26G 4G12
 -16516524.43149 -12869993.14247  21885569.1234   21885570.4074
 -12117759.36449  -9442393.35446  22673401.8724   22673403.1094
  -5553626.17849  -4327498.68447  21664308.1234   21664308.1064
 -17574840.93949 -13694646.87447  21699410.3934   21699411.0894
  -7865306.01248  -6128802.66146  23816463.3474   23816463.4124
   1529811.53948   1192060.11645  24590890.5294   24590893.7804
 -22754395.26749 -17730659.29348  20674792.3814   20674792.0904
 -22975110.031 9 -17902667.026 9  20799216.299    20799214.993
 95  3 14  0 40 30.0000000  0  8G24G 2G 9G 7G 5G26G 4G12
 -16605113.80849 -12939023.78847  21868710.9524   21868712.7124
 -12058424.83949  -9396158.67346  22684692.8064   22684693.6044
  -5603792.32849  -4366589.18347  21654761.8504   21654761.6624
 -17513678.19249 -13646987.60347  21711049.2344   21711049.8894
  -7945987.81448  -6191671.55246  23801109.8864   23801110.7884
   1597027.08748   1244435.85646  24603682.7524   24603687.0054
 -22780150.44849 -17750728.25448  20669891.3754   20669890.9634
 -23001569.105 9 -17923284.484 9  20794181.298    20794180.021
 95  3 14  0 41  0.0000000  0  8G24G 2G 9G 7G 5G26G 4G12
 -16693356.32349 -13007784.15547  21851918.8324   21851920.8044
 -11998812.64749  -9349707.64046  22696036.8254   22696038.7184
  -5653494.49249  -4405318.14147  21645303.6934   21645303.5684
 -17452391.75649 -13599231.94947  21722711.8584   21722712.3874
  -8026654.51348  -6254528.67346  23785759.4514   23785761.4094
   1664292.33048   1296850.30746  24616483.1314   24616484.3404
 -22805324.62749 -17770344.48048  20665100.7104   20665100.3374
 -23027552.352 9 -17943531.165 9  20789236.812    20789235.552
 95  3 14  0 41 30.0000000  0  8G24G 2G 9G 7G 5G26G 4G12
 -16781258.03949 -13076278.95747  21835191.7594   21835193.2884
 -11938948.98949  -9303060.65946  22707428.3374   22707429.7554
  -5702736.71449  -4443688.69747  21635933.3804   21635933.3714
 -17391002.01849 -13551395.80647  21734393.9674   21734394.8304
  -8107345.22048  -6317404.51946  23770404.5474   23770405.0254
   1731568.64848   1349273.31245  24629284.0504   24629283.5354
 -22829945.94749 -17789529.90448  20660415.4594   20660414.8894
 -23053081.389 9 -17963423.915 9  20784378.774    20784377.481
 95  3 14  0 42  0.0000000  0  8G24G 2G 9G 7G 5G26G 4G12
 -16868836.11649 -13144521.58147  21818526.2404   21818527.7744
 -11878847.48149  -9256228.35546  22718865.6094   22718866.5934
  -5751521.26349  -4481702.62347  21626650.0794   21626649.9854
 -17329514.06349 -13503483.12747  21746094.6414   21746095.3884
  -8188077.37448  -6380312.63446  23755042.0624   23755041.9724
   1798853.52848   1401703.05045  24642086.7554   24642088.5554
 -22854018.47649 -17808287.70048  20655834.6104   20655833.9964
 -23078166.231 9 -17982970.540 9  20779605.274    20779604.008
 95  3 14  0 42 30.0000000  0  8G24G 2G 9G 7G 5G26G 4G12
 -16956077.33549 -13212501.71047  21801924.7424   21801925.9764
 -11818489.93949  -9209196.52446  22730351.1334   22730352.0434
  -5799821.63249  -4519339.26547  21617458.8234   21617458.7594
 -17267899.02649 -13455471.41547  21757819.7884   21757820.4904
  -8268838.64948  -6443243.47246  23739673.6994   23739674.9294
   1866163.76148   1454152.54245  24654896.0154   24654898.9944
 -22877521.25049 -17826601.52748  20651362.1374   20651361.5984
 -23102786.062 9 -18002154.822 9  20774920.227    20774919.047
 95  3 14  0 43  0.0000000  0  8G24G 2G 9G 7G 5G26G 4G12
 -17042997.17549 -13280231.41647  21785384.2974   21785385.7004
 -11757877.67048  -9161966.20846  22741884.7504   22741886.2194
  -5847638.34349  -4556599.02647  21608359.5444   21608359.9084
 -17206167.29749 -13407368.77847  21769566.7504   21769567.0324
  -8349653.35348  -6506215.92646  23724295.4554   23724295.2154
   1933487.13048   1506612.26246  24667708.5674   24667709.8284
 -22900455.20249 -17844472.12048  20646997.9534   20646997.5374
 -23126948.908 9 -18020983.013 9  20770322.221    20770321.025
 95  3 14  0 43 30.0000000  0  8G24G 2G 9G 7G 5G26G 4G12
 -17129620.63749 -13347730.18547  21768900.5044   21768901.7314
 -11697009.77348  -9114536.71446  22753467.7314   22753468.7914
  -5894956.65849  -4593470.43247  21599355.1794   21599355.1764
 -17144324.86449 -13359179.87747  21781335.1594   21781335.6764
  -8430519.36348  -6569228.36946  23708906.8114   23708907.4164
   2000813.40248   1559074.26545  24680519.7664   24680521.9564
 -22922818.92649 -17861898.37548  20642742.0134   20642741.6904
 -23150659.129 9 -18039458.507 9  20765810.415    20765809.056
 95  3 14  0 44  0.0000000  0  8G24G 2G 9G 7G 5G26G 4G12
 -17215944.48749 -13414995.48447  21752473.5764   21752475.0944
 -11635867.11648  -9066893.11846  22765102.6524   22765104.1814
  -5941769.87349  -4629948.25547  21590446.9534   21590446.7414
 -17082363.81349 -13310898.55047  21793125.7634   21793126.4874
  -8511410.45748  -6632260.33446  23693513.2904   23693514.0484
   2068153.55548   1611547.04346  24693334.8004   24693337.7694
 -22944579.68349 -17878854.79248  20638601.0374   20638600.9144
 -23173896.164 9 -18057565.283 9  20761388.582    20761387.181
 95  3 14  0 44 30.0000000  0  8G24G 9G 2G 7G 5G26G 4G12
 -17301965.24649 -13482024.60847  21736104.3974   21736105.6834
  -5988083.53649  -4666036.81647  21581633.7974   21581633.8604
 -11574459.26448  -9019042.88446  22776788.4074   22776789.9044
 -17020311.65149 -13262546.22647  21804934.0194   21804935.0584
  -8592324.63748  -6695310.32646  23678115.6094   23678116.2484
   2135484.46148   1664012.64346  24706146.3394   24706149.4034
 -22965743.33549 -17895345.93148  20634573.9674   20634573.6214
 -23196662.343 9 -18075305.159 9  20757056.252    20757054.947
 95  3 14  0 45  0.0000000  0  8G24G 9G 2G 7G 5G26G 4G12
 -17387670.52349 -13548807.91147  21719795.2384   21719796.3584
  -6033906.13649  -4701742.72947  21572913.9244   21572914.1764
 -11512795.78948  -8970993.46046  22788523.0694   22788523.5024
 -16958190.64349 -13214140.26347  21816755.0054   21816755.6724
  -8673242.15148  -6758362.89046  23662717.9064   23662718.6004
   2202814.57448   1716477.59145  24718959.0474   24718963.2124
 -22986299.28449 -17911363.53548  20630662.2024   20630661.8144
 -23218951.341 9 -18092673.209 9  20752814.780    20752813.538
 95  3 14  0 45 30.0000000  0  8G24G 9G 2G 5G 7G26G 4G12
 -17473043.90949 -13615332.59347  21703549.3334   21703550.4194
  -6079224.93749  -4737056.07047  21564290.0724   21564290.2644
 -11450879.27048  -8922746.85446  22800304.9854   22800306.5164
  -8754139.07148  -6821399.42046  23647323.8554   23647324.8024
 -16895992.57949 -13165674.25047  21828591.0824   21828591.8694
   2270154.12548   1768949.91546  24731774.4584   24731775.5464
 -23006244.90349 -17926905.55848  20626866.7234   20626866.2784
 -23240746.522 9 -18109656.466 9  20748667.300    20748666.053
 95  3 14  0 46  0.0000000  0  8G24G 9G 2G 5G 7G26G 4G12
 -17558071.28849 -13681587.66647  21687368.9944   21687370.0414
  -6124040.78649  -4771977.50847  21555761.8194   21555761.6784
 -11388713.04848  -8874305.64346  22812135.0774   22812135.9584
  -8835025.83748  -6884428.02346  23631931.6344   23631931.7524
 -16833715.72449 -13117146.85547  21840441.9184   21840442.8004
   2337493.03148   1821421.73245  24744587.1874   24744590.1014
 -23025593.23649 -17941982.16648  20623184.8914   20623184.5014
 -23262047.616 9 -18126254.719 9  20744613.835    20744612.509
 95  3 14  0 46 30.0000000  0  8G24G 9G 2G 5G 7G26G 4G12
 -17642742.20849 -13747564.97247  21671256.6554   21671257.9364
  -6168346.80649  -4806501.67947  21547330.6854   21547330.5604
 -11326297.61848  -8825670.31446  22824012.5814   22824013.5534
  -8915904.00348  -6947449.93146  23616541.3504   23616541.1984
 -16771358.13049 -13068556.51947  21852308.1614   21852309.2174
   2404835.43248   1873896.30245  24757403.0064   24757404.5594
 -23044360.70749 -17956606.15848  20619613.5414   20619613.2084
 -23282861.321 9 -18142473.184 9  20740653.112    20740651.769
 95  3 14  0 47  0.0000000  0  8G24G 9G 2G 5G 7G26G 4G12
 -17727055.95449 -13813263.96947  21655212.3004   21655213.5284
  -6212144.35949  -4840629.63547  21538996.3644   21538996.2454
 -11263629.19448  -8776837.79646  22835937.6244   22835939.0694
  -8996779.32048  -7010469.61446  23601150.9954   23601151.8114
 -16708910.55749 -13019896.08947  21864191.4914   21864192.5794
   2472190.82948   1926380.97346  24770221.3154   24770222.4314
 -23062559.26349 -17970786.83848  20616150.4314   20616150.1074
 -23303192.325 9 -18158315.520 9  20736784.249    20736782.933
 95  3 14  0 47 30.0000000  0  8G24G 9G 2G 5G 7G26G 4G12
 -17810993.89949 -13878670.13047  21639239.4524   21639240.3994
  -6255407.92349  -4874341.49447  21530763.5564   21530763.4474
 -11200677.94048  -8727784.91046  22847917.0514   22847918.2814
  -9077652.09648  -7073487.31446  23585761.2094   23585762.3334
 -16646360.46349 -12971155.76247  21876094.4174   21876095.3374
   2539559.14948   1978875.70945  24783038.0934   24783041.7504
 -23080190.61449 -17984525.54148  20612795.1964   20612794.7444
 -23323034.640 9 -18173777.059 9  20733008.372    20733007.130
 95  3 14  0 48  0.0000000  0  8G24G 9G 2G 5G 7G26G 4G12
 -17894539.57549 -13943770.62547  21623341.1574   21623342.3294
  -6298135.69849  -4907635.85447  21522632.3424   21522632.5944
 -11137419.36848  -8678492.57346  22859954.6904   22859956.2924
  -9158520.27948  -7136501.43646  23570372.3224   23570373.9934
 -16583709.92649 -12922337.16847  21888016.5324   21888017.2954
   2606941.47348   2031381.36645  24795859.6814   24795863.8334
 -23097239.93449 -17997810.71348  20609550.8114   20609550.5254
 -23342386.916 9 -18188856.750 9  20729325.731    20729324.477
 95  3 14  0 48 30.0000000  0  8G24G 9G 2G 5G 7G26G 4G12
 -17977717.24049 -14008584.36847  21607512.8404   21607514.1414
  -6340365.37449  -4940542.08547  21514596.5274   21514596.2814
 -11073886.47648  -8628986.46146  22872044.7794   22872045.7774
  -9239402.23648  -7199526.29446  23554981.0714   23554981.9904
 -16520996.33349 -12873469.44047  21899950.6324   21899951.0284
   2674313.11448   2083878.69445  24808683.2014   24808685.3594
 -23113716.79349 -18010649.80948  20606415.3554   20606414.9894
 -23361270.887 9 -18203571.529 9  20725732.192    20725730.970
 95  3 14  0 49  0.0000000  0  8G24G 9G 2G 5G 7G26G 4G12
 -18060537.71949 -14073119.77347  21591752.6144   21591753.7044
  -6382110.58049  -4973070.81647  21506652.8814   21506652.2164
 -11010081.17648  -8579268.07946  22884186.5634   22884187.7944
  -9320301.20548  -7262564.42046  23539586.1964   23539587.5044
 -16458227.49749 -12824558.66847  21911894.9314   21911895.9654
   2741650.99648   2136349.70945  24821498.1174   24821495.4634
 -23129620.75749 -18023042.49348  20603388.9644   20603388.6134
 -23379684.254 9 -18217919.605 9  20722228.257    20722227.034
 95  3 14  0 49 30.0000000  0  8G24G 9G 2G 5G 7G26G 4G12
 -18143006.48149 -14137381.12147  21576059.1464   21576060.3404
  -6423378.07049  -5005227.29947  21498799.8414   21498799.6934
 -10946012.25348  -8529344.29046  22896378.2554   22896380.6544
  -9401222.23948  -7325619.72746  23524187.2504   23524187.4834
 -16395397.45649 -12775600.20647  21923851.1174   21923851.9844
   2808944.89748   2188786.44145  24834303.5004   24834305.6614
 -23144936.68249 -18034976.96948  20600474.5214   20600474.0794
 -23397620.127 9 -18231895.607 9  20718815.212    20718813.974
 95  3 14  0 50  0.0000000  0  8G24G 9G 2G 5G 7G26G 4G12
 -18225124.44549 -14201369.11747  21560432.7694   21560434.1504
  -6464173.59249  -5037016.00947  21491036.7924   21491036.7984
 -10881701.12448  -8479231.76646  22908616.6294   22908617.7874
  -9482175.80948  -7388700.37746  23508782.6784   23508782.7734
 -16332484.16049 -12726576.86847  21935823.4944   21935823.8924
   2876199.29148   2241192.40945  24847100.8144   24847103.2354
 -23159659.03949 -18046448.92248  20597672.9484   20597672.6534
 -23415072.854 9 -18245495.131 9  20715494.041    20715492.826
 95  3 14  0 50 30.0000000  0  8G24G 9G 2G 5G 7G26G 4G12
 -18306873.74149 -14265069.83347  21544876.4674   21544877.7434
  -6504472.14249  -5068417.47147  21483368.2284   21483367.9324
 -10817153.42048  -8428934.89046  22920899.3574   22920901.2494
  -9563147.52848  -7451795.17946  23493374.1604   23493374.4114
 -16269464.74349 -12677470.83747  21947815.6214   21947815.6964
   2943435.98848   2293584.59245  24859894.2994   24859897.5904
 -23173783.89349 -18057455.28548  20594984.9154   20594984.5924
 -23432023.865 9 -18258703.709 9  20712268.322    20712267.121
 95  3 14  0 51  0.0000000  0  8G24G 9G 2G 5G 7G26G 4G12
 -18388239.10049 -14328471.38347  21529393.2554   21529394.2244
  -6544242.92449  -5099407.69047  21475800.1344   21475799.7554
 -10752342.38848  -8378432.83746  22933232.4294   22933234.7534
  -9644125.34548  -7514894.69246  23477964.7194   23477965.1144
 -16206318.91149 -12628266.30347  21959831.8834   21959832.4544
   3010674.57648   2345978.25245  24872689.3254   24872694.3024
 -23187303.77449 -18067990.24048  20592412.0894   20592411.5994
 -23448459.376 9 -18271510.598 9  20709140.762    20709139.522
 95  3 14  0 51 30.0000000  0  8G24G 9G 2G 5G 7G26G 4G12
 -18469237.15749 -14391586.71147  21513979.7294   21513980.6604
  -6583492.68649  -5129991.92147  21468331.0744   21468330.9064
 -10687290.22448  -8327742.89646  22945611.4754   22945612.1864
  -9725124.54148  -7578010.91546  23462551.1754   23462551.6244
 -16143066.34649 -12578978.60247  21971868.4194   21971868.8324
   3077904.74148   2398365.36745  24885484.1474   24885487.2784
 -23200230.59949 -18078063.07348  20589952.2244   20589951.6334
 -23464398.815 9 -18283930.941 9  20706107.656    20706106.381
 95  3 14  0 52  0.0000000  0  8G24G 9G 2G 5G 7G26G 4G12
 -18549869.44249 -14454417.02447  21498635.9924   21498636.8884
  -6622209.23449  -5160160.65547  21460963.4854   21460963.4764
 -10621991.14748  -8276860.53246  22958037.6344   22958038.9694
  -9806131.05148  -7641132.84846  23447135.9634   23447137.0014
 -16079733.27149 -12529628.16747  21983920.3174   21983920.9154
   3145117.36548   2450738.74445  24898274.4184   24898271.6234
 -23212575.32849 -18087682.32748  20587603.1194   20587602.6424
 -23479847.833 9 -18295969.138 9  20703167.852    20703166.479
 95  3 14  0 52 30.0000000  0  8G24G 9G 2G 5G 7G26G 4G12
 -18630134.91949 -14516961.51347  21483361.7964   21483363.1174
  -6660377.46449  -5189902.13347  21453700.3994   21453700.1084
 -10556426.89248  -8225771.54346  22970514.3544   22970516.3224
  -9887119.78548  -7704240.91746  23431724.3454   23431725.5044
 -16016341.81049 -12480232.23747  21995983.2864   21995984.0004
   3212296.12148   2503085.73944  24911056.4844   24911059.5804
 -23224324.43349 -18096837.46048  20585367.3084   20585367.0164
 -23494794.828 9 -18307616.144 9  20700323.487    20700322.143
 95  3 14  0 53  0.0000000  0  8G24G 9G 2G 5G 7G26G 4G12
 -18710042.38149 -14579227.02747  21468155.7294   21468156.9914
  -6698010.20549  -5219226.34947  21446539.1804   21446538.9134
 -10490583.94448  -8174465.38146  22983043.6034   22983045.0384
  -9968088.36948  -7767333.28346  23416316.1544   23416316.7844
 -15952892.82449 -12430791.47947  22008057.2744   22008057.9524
   3279420.71948   2555390.60245  24923830.1404   24923834.3604
 -23235478.21149 -18105528.70448  20583244.7694   20583244.4084
 -23509235.215 9 -18318868.394 9  20697575.526    20697574.283
 95  3 14  0 53 30.0000000  0  8G24G 9G 7G 2G 5G26G 4G12
 -18789587.15349 -14641209.93547  21453018.7304   21453020.3234
  -6735123.59649  -5248145.87747  21439476.5434   21439476.2704
 -15889393.23949 -12381311.29147  22020140.9284   22020141.8034
 -10424479.36448  -8122955.35946  22995622.9114   22995624.2324
 -10049044.26848  -7830415.77346  23400910.7464   23400910.6974
   3346472.84848   2607638.94045  24936590.6234   24936592.6834
 -23246055.05749 -18113770.39248  20581232.0334   20581231.7834
 -23523175.652 9 -18329731.074 9  20694922.751    20694921.570
 95  3 14  0 54  0.0000000  0  8G24G 9G 7G 2G 5G26G 4G12
 -18868768.37249 -14702909.54947  21437951.2044   21437952.1584
  -6771736.22349  -5276675.19447  21432509.1814   21432509.2804
 -15825848.93749 -12331796.26147  22032233.0924   22032233.3244
 -10358127.65248  -8071252.76446  23008249.2374   23008250.8074
 -10130001.85548  -7893499.57246  23385505.2764   23385505.0454
   3413436.74048   2659818.57245  24949334.7254   24949337.4704
 -23256075.95949 -18121578.87448  20579325.2094   20579324.7964
 -23536626.202 9 -18340212.027 9  20692363.201    20692361.955
 95  3 14  0 54 30.0000000  0  8G24G 9G 7G 2G 5G26G 4G12
 -18947542.30649 -14764291.79647  21422961.2404   21422962.0064
  -6807820.69249  -5304792.96147  21425642.5684   21425642.3534
 -15762195.08149 -12282195.86347  22044346.0274   22044346.4984
 -10291493.03948  -8019329.72946  23020929.3084   23020930.7964
 -10210932.00448  -7956561.98946  23370104.8834   23370105.1234
   3480359.55348   2711966.13845  24962070.4724   24962075.3654
 -23265497.43949 -18128920.27448  20577532.3674   20577531.9154
 -23549544.321 9 -18350278.097 9  20689904.995    20689903.730
 95  3 14  0 55  0.0000000  0  8G24G 9G 7G 2G 5G26G 4G12
 -19025905.51949 -14825354.00547  21408049.0844   21408049.9924
  -6843401.31749  -5332518.12547  21418872.0644   21418871.9254
 -15698423.79249 -12232503.95947  22056481.1774   22056481.9364
 -10224582.99048  -7967192.07546  23033661.9954   23033663.9144
 -10291854.76348  -8019618.65546  23354705.5724   23354706.0614
   3547250.54548   2764088.92444  24974799.6544   24974806.7284
 -23274334.66049 -18135806.40848  20575850.5634   20575850.2114
 -23561946.291 9 -18359941.973 9  20687545.006    20687543.724
 95  3 14  0 55 30.0000000  0  8G24G 9G 7G 2G 5G26G 4G12
 -19103820.32649 -14886066.80747  21393222.0044   21393223.2754
  -6878422.96649  -5359807.71947  21412207.5244   21412207.6584
 -15634517.00149 -12182706.47447  22068642.3904   22068643.2734
 -10157369.67148  -7914818.07446  23046452.5354   23046454.4954
 -10372729.02748  -8082637.52346  23339315.6294   23339315.5244
   3614152.84848   2816220.60245  24987529.3274   24987529.6984
 -23282539.01049 -18142199.40048  20574289.3134   20574288.9504
 -23573800.507 9 -18369179.025 9  20685289.267    20685287.931
 95  3 14  0 56  0.0000000  0  8G24G 9G 7G 2G 5G26G 4G12
 -19181369.41549 -14946494.63347  21378464.9214   21378466.3074
  -6912937.91249  -5386702.47747  21405639.6054   21405639.6014
 -15570546.94449 -12132859.69147  22080815.5654   22080816.0514
 -10089923.09248  -7862262.34846  23059286.9384   23059288.6554
 -10453620.76849  -8145670.01446  23323922.3904   23323922.4884
   3681001.65448   2868310.50345  25000248.5244   25000249.8484
 -23290162.40849 -18148139.70048  20572838.7644   20572838.3214
 -23585170.604 9 -18378038.842 9  20683125.551    20683124.297
 95  3 14  0 56 30.0000000  0  8G24G 9G 7G 2G 5G26G 4G12
 -19258559.34249 -15006642.59147  21363776.6124   21363777.3754
  -6946940.78749  -5413198.22047  21399169.1424   21399169.0284
 -15506514.37549 -12082964.19347  22093000.4714   22093000.9604
 -10022249.70448  -7809529.88946  23072164.6654   23072167.4704
 -10534538.98549  -8208723.12546  23308524.0724   23308524.2394
   3747791.39948   2920354.39445  25012959.3394   25012964.9434
 -23297201.52749 -18153624.72148  20571499.1674   20571498.6494
 -23596058.146 9 -18386522.641 9  20681053.701    20681052.418
 95  3 14  0 57  0.0000000  0  8G24G 9G 7G 2G 5G26G 4G12
 -19335367.89349 -15066493.37547  21349160.3034   21349161.0214
  -6980398.68949  -5439269.31347  21392802.3754   21392801.9634
 -15442416.47749 -12033017.78647  22105197.7204   22105198.4184
  -9954337.67148  -7756611.44946  23085088.0234   23085089.4864
 -10615460.27149  -8271778.63446  23293125.1634   23293125.5214
   3814532.01148   2972360.03145  25025661.3854   25025662.4034
 -23303638.24949 -18158640.34448  20570274.4244   20570273.8144
 -23606445.607 9 -18394616.769 9  20679077.018    20679075.749
 95  3 14  0 57 30.0000000  0  8G24G 9G 7G 2G 5G26G 4G12
 -19411805.37849 -15126055.01747  21334614.7294   21334615.4294
  -7013308.02449  -5464912.95347  21386540.0094   21386539.8324
 -15378271.82549 -11983034.96047  22117403.9204   22117404.8184
  -9886200.34848  -7703517.45746  23098053.8814   23098054.4134
 -10696385.73349  -8334837.40146  23277725.7324   23277725.9814
   3881219.70348   3024324.39145  25038351.3764   25038355.2034
 -23309475.86549 -18163189.12848  20569163.5984   20569163.2264
 -23616328.574 9 -18402317.784 9  20677196.356    20677195.079
 95  3 14  0 58  0.0000000  0  8G24G 9G 7G 2G 5G26G 4G12
 -19487861.67149 -15185319.63347  21320141.5204   21320142.4474
  -7045687.69049  -5490143.85248  21380378.3404   21380378.0904
 -15314063.82949 -11933002.77347  22129622.2984   22129623.1494
  -9817828.18148  -7650240.46546  23111064.9784   23111065.5624
 -10777331.08449  -8397911.66946  23262322.5244   23262322.1744
   3947854.26048   3076247.36645  25051030.5814   25051039.8664
 -23314721.20949 -18167276.39648  20568165.5344   20568165.3404
 -23625704.992 9 -18409624.084 9  20675412.102    20675410.817
 95  3 14  0 58 30.0000000  0  8G24G 9G 7G 2G 5G26G 4G12
 -19563507.73749 -15244264.59047  21305746.3904   21305747.5514
  -7077533.61149  -5514958.84947  21374318.1574   21374318.1114
 -15249788.98849 -11882918.48947  22141853.4964   22141853.4704
  -9749194.31248  -7596759.55946  23124125.7294   23124128.1604
 -10858275.25049  -8460984.99846  23246919.2834   23246919.4864
   4014443.09648   3128134.76745  25063703.2384   25063706.6174
 -23319360.82349 -18170891.67448  20567282.3064   20567282.1184
 -23634560.511 9 -18416524.490 9  20673726.886    20673725.684
 95  3 14  0 59  0.0000000  0  8G24G 9G 7G 2G 5G26G 4G12
 -19638742.10949 -15302888.74847  21291429.6734   21291430.9134
  -7108848.47049  -5539360.03347  21368359.3114   21368358.9774
 -15185458.68949 -11832790.99147  22154095.2794   22154095.6934
  -9680273.94248  -7543055.41846  23137240.6624   23137241.9464
 -10939196.03949  -8524040.12746  23231520.3874   23231520.8584
   4080997.99648   3179995.69544  25076367.0824   25076375.5514
 -23323393.85349 -18174034.28848  20566514.8904   20566514.6084
 -23642883.596 9 -18423010.012 9  20672143.049    20672141.812
 95  3 14  0 59 30.0000000  0  8G24G 9G 7G 2G 5G26G 4G12
 -19713576.10449 -15361200.92647  21277189.3294   21277190.3954
  -7139642.02849  -5563355.01247  21362499.5904   21362499.2444
 -15121085.78149 -11782630.28747  22166344.7334   22166345.3134
  -9611064.45548  -7489125.98046  23150410.9464   23150412.2744
 -11020092.40349  -8587076.22146  23216126.2674   23216126.6004
   4147499.11848   3231814.73545  25089021.2204   25089020.4574
 -23326837.50049 -18176717.64248  20565859.7474   20565859.3834
 -23650682.135 9 -18429086.796 9  20670659.063    20670657.783
 95  3 14  1  0  0.0000000  0  8G24G 9G 7G 2G 5G26G 4G12
 -19787992.14849 -15419187.42547  21263028.4834   21263029.3014
  -7169892.44449  -5586926.76047  21356742.8844   21356742.7784
 -15056648.66549 -11732419.55147  22178606.7434   22178607.8384
  -9541551.38748  -7434959.98946  23163638.8674   23163640.2084
 -11100946.21448  -8650079.14146  23200740.1644   23200740.8844
   4213937.32348   3283584.69045  25101666.0064   25101667.8664
 -23329683.23349 -18178935.08848  20565318.1984   20565317.7624
 -23657946.353 9 -18434747.224 9  20669276.808    20669275.437
 95  3 14  1  0 30.0000000  0  8G24G 9G 7G 2G 5G26G 4G12
 -19862029.92949 -15476879.17447  21248939.5874   21248940.4084
  -7199619.04149  -5610090.33248  21351086.0884   21351086.1654
 -14992191.37349 -11682193.10047  22190872.5794   22190873.0334
  -9471782.03448  -7380594.28746  23176915.6054   23176918.4014
 -11181770.16748  -8713058.81846  23185359.8174   23185360.7654
   4280271.52948   3335273.59745  25114289.5454   25114287.1274
 -23331969.24249 -18180716.38648  20564883.3554   20564882.6894
 -23664705.396 9 -18440014.011 9  20667990.599    20667989.268
 95  3 14  1  1  0.0000000  0  8G24G 9G 7G 2G 5G26G 4G12
 -19935693.22149 -15534279.11347  21234921.9534   21234922.6594
  -7228818.52149  -5632843.16748  21345529.7214   21345529.5494
 -14927698.78749 -11631939.14747  22203145.1824   22203146.3504
  -9401768.84248  -7326038.60546  23190238.7234   23190240.5034
 -11262571.91448  -8776021.17546  23169983.7834   23169984.9454
   4346486.61648   3386869.67545  25126889.5494   25126888.9554
 -23333708.97549 -18182072.01348  20564552.1494   20564551.4734
 -23670964.094 9 -18444890.919 9  20666799.577    20666798.259
 95  3 14  1  1 30.0000000  0  8G24G 9G 7G 2G 5G26G 4G12
 -20008939.75349 -15591354.30747  21220983.3034   21220984.6174
  -7257452.25349  -5655155.16947  21340080.8504   21340080.4864
 -14863134.97749 -11581629.69647  22215431.5274   22215431.8574
  -9331513.84048  -7271294.49046  23203607.8544   23203609.4434
 -11343359.60148  -8838972.60746  23154610.5114   23154611.2934
   4412581.45348   3438372.09645  25139465.9624   25139467.4944
 -23334877.32149 -18182982.40048  20564329.6404   20564329.3034
 -23676705.337 9 -18449364.616 9  20665707.034    20665705.726
 95  3 14  1  2  0.0000000  0  8G24G 9G 7G 2G 5G26G 4G12
 -20081742.16549 -15648083.42747  21207129.4514   21207130.4574
  -7285506.45349  -5677015.58747  21334742.3574   21334742.0384
 -14798483.94549 -11531252.27547  22227734.3874   22227734.9184
  -9261011.44848  -7216357.59046  23217023.6404   23217025.1364
 -11424138.48449  -8901917.15346  23139238.6894   23139239.3134
   4478577.07448   3489797.21945  25152022.4834   25152028.0464
 -23335453.64049 -18183431.47148  20564219.9374   20564219.5514
 -23681909.331 9 -18453419.678 9  20664716.790    20664715.470
 95  3 14  1  2 30.0000000  0  8G24G 9G 7G 2G 5G26G 4G12
 -20154093.71249 -15704461.22647  21193361.6604   21193362.5904
  -7312983.36449  -5698426.16548  21329513.5414   21329513.2624
 -14733746.33349 -11480807.39047  22240053.3754   22240053.6374
  -9190252.50548  -7161220.79946  23230488.6864   23230490.0754
 -11504906.91249  -8964853.55246  23123868.8804   23123869.5884
   4544479.12548   3541149.45345  25164565.0634   25164565.9904
 -23335426.94649 -18183410.66248  20564225.2094   20564224.7794
 -23686569.974 9 -18457051.352 9  20663829.929    20663828.634
 95  3 14  1  3  0.0000000  0  8G24G 9G 7G 2G 5G26G 4G12
 -20225983.70949 -15760479.37647  21179681.2704   21179682.3624
  -7339893.66749  -5719395.23048  21324392.6694   21324392.5264
 -14668913.78549 -11430288.53047  22252390.5754   22252391.1494
  -9119234.38148  -7105882.03046  23244003.1294   23244004.4254
 -11585666.89549  -9027783.37846  23108500.8534   23108501.9104
   4610298.49048   3592437.19545  25177091.2914   25177087.0624
 -23334790.72749 -18182914.90048  20564346.0684   20564345.6234
 -23690684.714 9 -18460257.647 9  20663046.962    20663045.631
 95  3 14  1  3 30.0000000  0  8G24G 9G 7G 2G 5G26G 4G12
 -20297444.16649 -15816162.82247  21166082.6304   21166083.6854
  -7366274.75749  -5739951.92248  21319372.4384   21319372.3744
 -14604038.32749 -11379736.23647  22264735.9414   22264736.4404
  -9047981.47248  -7050360.31546  23257562.1694   23257563.8694
 -11666433.22349  -9090718.15246  23093131.2904   23093131.8294
   4676023.73048   3643651.57644  25189597.3784   25189595.5944
 -23333572.68349 -18181965.76748  20564577.8714   20564577.4184
 -23694279.242 9 -18463058.582 9  20662362.937    20662361.574
 95  3 14  1  4  0.0000000  0  7G24G 9G 7G 2G 5G 4G12
 -20368489.14149 -15871522.51847  21152563.0084   21152563.8504
  -7392146.09449  -5760111.40548  21314449.4354   21314448.9914
 -14539118.72549 -11329149.53747  22277089.6674   22277090.0764
  -8976475.44848  -6994641.37646  23271169.2324   23271170.6774
 -11747162.27048  -9153623.87446  23077769.0194   23077769.5084
 -23331768.13649 -18180559.62048  20564921.4054   20564920.9524
 -23697347.596 9 -18465449.509 9  20661779.035    20661777.620
 95  3 14  1  4 30.0000000  0  7G24G 9G 7G 2G 5G 4G12
 -20439124.67049 -15926563.16747  21139121.6164   21139122.3844
  -7417503.57149  -5779870.48348  21309624.2314   21309623.6344
 -14474133.54949 -11278511.74647  22289455.4904   22289456.6984
  -8904701.08148  -6938713.34146  23284827.9174   23284828.4004
 -11827823.81648  -9216476.99546  23062419.5524   23062420.4974
 -23329367.58549 -18178689.05548  20565378.2034   20565377.8094
 -23699883.533 9 -18467425.566 9  20661296.404    20661295.127
 95  3 14  1  5  0.0000000  0  7G24G 9G 7G 2G 5G 4G12
 -20509299.60249 -15981244.91147  21125767.9654   21125768.8924
  -7442297.24949  -5799190.23748  21304906.0364   21304905.5224
 -14409034.54749 -11227785.25247  22301843.5994   22301844.5584
  -8832612.17448  -6882540.20246  23298545.8954   23298547.8664
 -11908369.07748  -9279239.51346  23047092.1544   23047092.5604
 -23326343.92949 -18176332.95548  20565953.5034   20565953.1304
 -23701843.987 9 -18468953.198 9  20660923.333    20660922.084
 95  3 14  1  5 30.0000000  0  7G24G 9G 7G 2G 5G 4G12
 -20579051.49549 -16035597.01847  21112494.7084   21112495.5664
  -7466558.88049  -5818095.40448  21300289.0674   21300289.0424
 -14343869.47149 -11177007.27147  22314244.3744   22314245.0024
  -8760242.09348  -6826147.95846  23312317.5174   23312317.2404
 -11988857.94249  -9341958.09346  23031775.9804   23031776.0024
 -23322746.78049 -18173529.97748  20566638.0324   20566637.6474
 -23703275.167 9 -18470068.407 9  20660651.029    20660649.642
 95  3 14  1  6  0.0000000  0  7G24G 9G 7G 5G 2G 4G12
 -20648403.42449 -16089637.47047  21099297.4944   21099298.3674
  -7490306.86349  -5836600.32648  21295769.9184   21295769.8184
 -14278644.95949 -11126182.98247  22326656.3484   22326657.1284
 -12069334.61549  -9404667.17346  23016461.7554   23016462.0854
  -8687622.92048  -6769561.65146  23326136.2074   23326137.7254
 -23318595.04849 -18170294.85748  20567428.0864   20567427.6874
 -23704203.000 9 -18470791.395 9  20660474.480    20660473.098
 95  3 14  1  6 30.0000000  0  7G24G 9G 7G 2G 5G 4G12
 -20717333.17349 -16143348.94547  21086180.3904   21086181.4104
  -7513500.95649  -5854673.65248  21291356.4394   21291356.0394
 -14213361.68049 -11075312.89047  22339079.0314   22339079.6914
  -8614748.26248  -6712776.24146  23340003.8904   23340005.9274
 -12149806.01549  -9467372.14546  23001148.6284   23001149.3574
 -23313879.74549 -18166620.58848  20568325.2854   20568324.9134
 -23704613.262 9 -18471111.080 9  20660396.417    20660395.047
 95  3 14  1  7  0.0000000  0  7G24G 9G 7G 5G 2G 4G12
 -20785838.89949 -16196730.01047  21073144.0514   21073144.9744
  -7536144.15749  -5872317.71248  21287047.5114   21287047.2574
 -14148058.67749 -11024427.44047  22351505.8784   22351506.3364
 -12230302.69049  -9530096.80646  22985830.6414   22985830.8054
  -8541639.02848  -6655808.04146  23353916.4364   23353918.0334
 -23308611.58749 -18162515.52148  20569327.9224   20569327.5714
 -23704517.016 9 -18471036.087 9  20660414.712    20660413.395
 95  3 14  1  7 30.0000000  0  7G24G 9G 7G 2G 5G 4G12
 -20853932.59749 -16249790.01447  21060186.4574   21060187.1284
  -7558236.64149  -5889532.63948  21282843.3374   21282843.1524
 -14082748.51549 -10973536.40847  22363934.1234   22363934.4114
  -8468301.18148  -6598661.71946  23367872.3294   23367874.1324
 -12310834.16649  -9592848.58446  22970506.1264   22970506.3384
 -23302777.55549 -18157969.51348  20570438.0234   20570437.6174
 -23703911.305 9 -18470564.109 9  20660529.927    20660528.651
 95  3 14  1  8  0.0000000  0  7G24G 9G 7G 2G 5G 4G12
 -20921610.06749 -16302525.68548  21047308.2194   21047308.6224
  -7579756.02349  -5906300.99248  21278748.5504   21278748.1964
 -14017421.56249 -10922632.29247  22376365.1734   22376366.2324
  -8394729.90748  -6541333.50046  23381872.5424   23381873.6304
 -12391366.70149  -9655601.18746  22955181.0724   22955180.7864
 -23296356.09849 -18152965.77348  20571659.9064   20571659.4724
 -23702776.544 9 -18469679.880 9  20660745.890    20660744.568
 95  3 14  1  8 30.0000000  0  7G24G 9G 7G 2G 5G 4G12
 -20988851.31049 -16354921.44047  21034512.4964   21034513.2224
  -7600708.06449  -5922627.26048  21274761.5824   21274761.0924
 -13952093.63049 -10871727.41546  22388796.8114   22388797.6544
  -8320920.90048  -6483820.02646  23395918.0744   23395919.7114
 -12471887.12349  -9718344.33546  22939858.5134   22939858.7134
 -23289346.69049 -18147503.89348  20572993.9044   20572993.5114
 -23701108.812 9 -18468380.346 9  20661063.281    20661061.917
 95  3 14  1  9  0.0000000  0  7G24G 9G 7G 2G 5G 4G12
 -21055608.14649 -16406939.73448  21021808.7534   21021809.7974
  -7621071.79949  -5938495.11048  21270886.5434   21270886.0934
 -13886709.06249 -10820778.40846  22401239.1624   22401240.3894
  -8246834.59748  -6426090.48246  23410015.9024   23410017.4934
 -12552354.07349  -9781045.82646  22924546.0744   22924546.7534
 -23281709.33249 -18141552.69748  20574447.3754   20574446.8714
 -23698864.582 9 -18466631.594 9  20661490.326    20661489.030
 95  3 14  1  9 30.0000000  0  7G24G 9G 7G 2G 5G 4G12
 -21121904.81849 -16458599.46248  21009192.8894   21009194.0244
  -7640880.03849  -5953930.10648  21267117.0874   21267116.6174
 -13821270.58849 -10769787.39047  22413691.5864   22413691.3544
  -8172496.45648  -6368164.70446  23424161.7704   23424162.0384
 -12632776.38549  -9843712.52746  22909242.3574   22909242.2154
 -23273471.13449 -18135133.31448  20576014.8354   20576014.3934
 -23696068.624 9 -18464452.926 9  20662022.384    20662021.085
 95  3 14  1 10  0.0000000  0  8G24G 9G 7G 2G 5G26G 4G12
 -21187724.74749 -16509887.70748  20996667.7424   20996668.5864
  -7660135.01949  -5968933.98848  21263452.8684   21263452.6334
 -13755770.42849 -10718748.32246  22426155.8214   22426156.8704
  -8097910.35148  -6310045.70146  23438355.4634   23438358.8404
 -12713133.86649  -9906328.70146  22893950.5904   22893951.2224
        -1.03358        -0.67455  25350546.1644   25350549.0154
 -23264635.06549 -18128248.05948  20577696.1734   20577695.6464
 -23692721.625 9 -18461844.875 9  20662659.319    20662657.988
 95  3 14  1 10 30.0000000  0  8G 9G 7G 5G 2G26G 4G24G12
  -7678831.22249  -5983502.45948  21259895.0714   21259894.8444
 -13690195.34949 -10667650.85646  22438634.2474   22438635.4944
 -12793419.66449  -9968889.02046  22878672.7644   22878672.8424
  -8023063.72148  -6251723.71246  23452598.2094   23452599.1004
     64318.27048     50118.19145  25362785.3164   25362788.8634
 -23255197.56549 -18120894.15748  20579492.2634   20579491.8444
 -21253052.71549 -16560792.59648  20984236.4804   20984236.8434
 -23688813.948 9 -18458799.932 9  20663402.951    20663401.577
 95  3 14  1 11  0.0000000  0  8G 9G 5G 2G 7G26G 4G24G12
  -7696985.21849  -5997648.42748  21256440.4564   21256440.2964
 -12873661.91949 -10031415.42547  22863403.4954   22863403.8894
  -7947981.97048  -6193218.47646  23466885.4134   23466887.1434
 -13624563.88049 -10616509.45946  22451123.5494   22451123.9994
    128497.58948    100127.96645  25374999.3744   25375003.1964
 -23245196.86749 -18113101.40348  20581395.0994   20581394.7714
 -21317947.63549 -16611360.04148  20971887.3934   20971887.7344
 -23684380.258 9 -18455345.113 9  20664246.646    20664245.313
 95  3 14  1 11 30.0000000  0  7G 9G 5G 2G 7G 4G24G12
  -7714544.96649  -6011331.34948  21253098.8104   21253098.4574
 -12953813.46849 -10093871.13646  22848150.9324   22848151.3114
  -7872618.20748  -6134493.51546  23481226.7494   23481228.4964
 -13558848.80649 -10565302.91846  22463628.7024   22463629.5764
 -23234601.31549 -18104845.12648  20583411.3424   20583411.0684
 -21382382.68949 -16661569.14948  20959625.7244   20959626.4424
 -23679387.304 9 -18451454.503 9  20665196.769    20665195.429
 95  3 14  1 12  0.0000000  0  7G 9G 5G 2G 7G 4G24G12
  -7731520.77649  -6024559.25748  21249868.5024   21249868.1414
 -13033898.56949 -10156275.08047  22832911.3014   22832911.5404
  -7796981.90948  -6075556.19146  23495620.5844   23495622.3404
 -13493079.41949 -10514054.05446  22476144.3484   22476145.3834
 -23223428.02549 -18096138.66148  20585537.6744   20585537.1524
 -21446378.68549 -16711436.13348  20947447.4734   20947448.7344
 -23673847.276 9 -18447137.601 9  20666250.973    20666249.649
 95  3 14  1 12 30.0000000  0  7G 9G 5G 2G 7G 4G24G12
  -7747884.85149  -6037310.48248  21246754.6084   21246754.5494
 -13113906.92749 -10218619.23247  22817686.1304   22817686.3654
  -7721036.00348  -6016377.57746  23510073.0544   23510074.7804
 -13427228.86649 -10462741.94746  22488675.3754   22488675.5104
 -23211638.24149 -18086951.81248  20587781.2324   20587780.7864
 -21509913.56449 -16760943.81048  20935357.2334   20935358.2764
 -23667728.517 9 -18442369.741 9  20667415.312    20667414.023
 95  3 14  1 13  0.0000000  0  7G 9G 5G 2G 7G 4G24G12
  -7763658.52949  -6049601.65348  21243752.9674   21243753.0224
 -13193856.30749 -10280917.42147  22802471.9534   22802472.2664
  -7644801.79148  -5956974.31646  23524579.5154   23524581.3764
 -13361317.18449 -10411382.19746  22501217.9314   22501218.6314
 -23199252.08249 -18077300.25548  20590138.0354   20590137.5944
 -21572998.30649 -16810100.72848  20923352.8564   20923353.6204
 -23661051.914 9 -18437167.199 9  20668685.874    20668684.568
 95  3 14  1 13 30.0000000  0  7G 9G 5G 7G 2G 4G24G12
  -7778930.03249  -6061501.51848  21240846.9874   21240846.8764
 -13273830.65449 -10343235.07647  22787253.3104   22787253.8084
 -13295439.41849 -10360048.88346  22513754.2384   22513754.5294
  -7568371.85448  -5897418.58046  23539123.4394   23539124.8034
 -23186346.87649 -18067244.24448  20592593.8014   20592593.4894
 -21635680.89149 -16858944.27848  20911424.7654   20911425.4754
 -23653892.942 9 -18431588.788 9  20670048.173    20670046.890
 95  3 14  1 14  0.0000000  0  7G 9G 5G 7G 2G 4G24G12
  -7793693.40349  -6073005.44148  21238037.4174   21238037.1404
 -13353820.04649 -10405564.44347  22772031.7594   22772032.3044
 -13229588.69449 -10308736.63846  22526285.0604   22526285.6384
  -7491751.85948  -5837714.72946  23553704.0724   23553706.4724
 -23172911.83349 -18056775.37648  20595150.5864   20595150.2804
 -21697938.55349 -16907456.71448  20899577.2164   20899578.1114
 -23646240.274 9 -18425625.677 9  20671504.435    20671503.110
 95  3 14  1 14 30.0000000  0  7G 9G 5G 7G 2G 4G24G12
  -7807869.07849  -6084051.42548  21235339.8634   21235339.6814
 -13433733.84049 -10467834.89747  22756824.6004   22756825.4964
 -13163680.69749 -10257379.76546  22538826.9654   22538827.7614
  -7414861.92248  -5777800.52246  23568335.9434   23568338.9714
 -23158871.56649 -18045834.90348  20597822.4574   20597822.1184
 -21759683.98049 -16955570.01048  20887827.5144   20887828.4834
 -23638018.013 9 -18419218.724 9  20673069.090    20673067.712
 95  3 14  1 15  0.0000000  0  7G 9G 5G 7G 2G 4G24G12
  -7821459.83249  -6094641.62348  21232753.6714   21232753.5884
 -13513566.26149 -10530041.94847  22741633.1974   22741633.7564
 -13097731.34349 -10205990.65946  22551376.3844   22551377.6064
  -7337706.78148  -5717679.66846  23583018.0344   23583018.8114
 -23144257.42949 -18034447.25848  20600603.3284   20600602.9584
 -21820916.49049 -17003283.62748  20876175.2824   20876176.2834
 -23629237.777 9 -18412376.983 9  20674739.928    20674738.571
 95  3 14  1 15 30.0000000  0  7G 9G 5G 7G 2G 4G24G12
  -7834483.23449  -6104789.73048  21230275.4794   21230275.2644
 -13593332.96049 -10592197.78247  22726454.0824   22726454.5164
 -13031753.29749 -10154579.19646  22563931.4364   22563931.8354
  -7260291.40148  -5657356.02946  23597749.2564   23597750.5144
 -23129081.91849 -18022622.17548  20603491.1404   20603490.6514
 -21881650.66449 -17050608.93248  20864617.9834   20864618.6954
 -23619910.898 9 -18405109.286 9  20676514.773    20676513.460
 95  3 14  1 16  0.0000000  0  7G 9G 5G 7G 2G 4G24G12
  -7846954.75749  -6114507.80348  21227902.1554   21227901.8054
 -13673040.93749 -10654307.87047  22711286.2354   22711286.1534
 -12965746.78649 -10103145.55846  22576492.3904   22576493.8514
  -7182619.19348  -5596832.24746  23612529.6994   23612531.7804
 -23113352.59449 -18010365.55148  20606484.2884   20606483.9204
 -21941927.46249 -17097577.84048  20853147.7774   20853148.3334
 -23610048.669 9 -18397424.437 9  20678391.471    20678390.125
 95  3 14  1 16 30.0000000  0  7G 9G 5G 7G 2G 4G24G12
  -7858894.50649  -6123811.50748  21225630.1254   21225629.7524
 -13752711.92249 -10716389.12947  22696125.4874   22696125.2354
 -12899723.48149 -10051698.83146  22589056.3184   22589057.0604
  -7104698.49748  -5536114.87246  23627357.7054   23627357.9044
 -23097079.05749 -17997684.86448  20609581.0684   20609580.9154
 -22001771.16149 -17144209.27248  20841759.6064   20841760.3644
 -23599664.607 9 -18389332.965 9  20680367.514    20680366.107
 95  3 14  1 17  0.0000000  0  7G 9G 5G 7G 2G 4G24G12
  -7870303.18149  -6132701.38848  21223459.0924   21223459.0674
 -13832341.44349 -10778438.08547  22680972.4684   22680972.3684
 -12833680.48349 -10000236.75846  22601623.8824   22601624.2984
  -7026541.34748  -5475213.24846  23642230.3774   23642231.4844
 -23080247.40949 -17984569.28748  20612784.0614   20612783.6914
 -22061178.94749 -17190501.02748  20830454.6184   20830455.4354
 -23588747.321 9 -18380825.994 9  20682445.034    20682443.616
 95  3 14  1 17 30.0000000  0  7G 9G 5G 7G 2G 4G24G12
  -7881191.35349  -6141185.68048  21221387.2124   21221387.1414
 -13911941.31149 -10840463.92447  22665824.8434   22665824.9874
 -12767615.42249  -9948757.48946  22614195.5064   22614196.5614
  -6948186.53448  -5414157.59845  23657141.0944   23657144.2714
 -23062858.29149 -17971019.31648  20616093.2694   20616092.8254
 -22120178.11949 -17236474.38348  20819227.6054   20819228.2204
 -23577301.474 9 -18371907.158 9  20684623.102    20684621.744
 95  3 14  1 18  0.0000000  0  7G 9G 5G 7G 2G 4G24G12
  -7891538.22849  -6149248.18948  21219418.3124   21219418.1974
 -13991497.28449 -10902455.57047  22650685.8404   22650685.8524
 -12701519.77849  -9897254.39346  22626773.5224   22626774.2754
  -6869632.03648  -5352946.33546  23672089.7594   23672091.9664
 -23044894.31249 -17957021.40248  20619511.4044   20619511.1324
 -22178748.33649 -17282113.49248  20808082.0704   20808082.6994
 -23565308.442 9 -18362561.941 9  20686905.297    20686903.911
 95  3 14  1 18 30.0000000  0  7G 9G 5G 7G 2G 4G24G12
  -7901299.69349  -6156854.53048  21217560.5264   21217560.2094
 -14070972.83149 -10964384.53947  22635562.2034   22635562.2604
 -12635360.65049  -9845701.83246  22639362.9274   22639363.6444
  -6790844.87348  -5291553.78146  23687082.1844   23687084.5944
 -23026324.86149 -17942551.69148  20623044.9484   20623044.6204
 -22236822.95949 -17327366.42248  20797030.6844   20797031.6684
 -23552730.276 9 -18352760.773 9  20689298.849    20689297.435
 95  3 14  1 19  0.0000000  0  7G 9G 5G 7G 2G 4G24G12
  -7910463.34049  -6163995.04348  21215817.0284   21215816.8714
 -14150359.73749 -11026244.44547  22620455.5494   22620455.6444
 -12569133.24849  -9794096.07546  22651965.5574   22651965.6904
  -6711815.45748  -5229972.46045  23702120.7794   23702122.9894
 -23007156.88349 -17927615.59648  20626692.5204   20626692.0634
 -22294388.22749 -17372222.45648  20786076.3544   20786077.4134
 -23539561.570 9 -18342499.443 9  20691804.731    20691803.404
 95  3 14  1 19 30.0000000  0  7G 9G 5G 7G 2G 4G24G12
  -7919035.37649  -6170674.56348  21214185.8404   21214185.8104
 -14229685.04549 -11088056.34947  22605360.3224   22605360.6294
 -12502867.46949  -9742460.40446  22664575.7484   22664576.6564
  -6632541.59248  -5168200.66145  23717205.8544   23717207.4454
 -22987422.29749 -17912237.98948  20630447.9884   20630447.6004
 -22351462.30449 -17416695.74448  20775215.5074   20775216.3994
 -23525827.991 9 -18331797.958 9  20694418.140    20694416.840
 95  3 14  1 20  0.0000000  0  7G 9G 5G 7G 2G 4G24G12
  -7927009.86549  -6176888.45848  21212668.1344   21212668.1944
 -14308938.40249 -11149812.17247  22590278.6994   22590279.0684
 -12436571.53349  -9690801.23846  22677191.3614   22677191.7544
  -6552992.67148  -5106214.54245  23732343.8194   23732346.7814
 -22967102.86849 -17896404.66048  20634314.5814   20634314.2144
 -22408018.39149 -17460765.39948  20764453.1894   20764454.0184
 -23511524.913 9 -18320652.710 9  20697139.975    20697138.603
 95  3 14  1 20 30.0000000  0  7G 9G 5G 7G 2G 4G24G12
  -7934337.54649  -6182598.34448  21211273.6844   21211273.8404
 -14388052.09949 -11211459.18147  22575223.6624   22575224.2104
 -12370185.94249  -9639072.20746  22689823.9394   22689825.1484
  -6473111.80848  -5043969.77845  23747544.7624   23747546.9954
 -22946151.07949 -17880078.58448  20638301.5994   20638301.2444
 -22464008.02649 -17504393.66248  20753798.6344   20753799.3424
 -23496604.715 9 -18309026.583 9  20699979.223    20699977.763
 95  3 14  1 21  0.0000000  0  7G 9G 5G 7G 2G 4G24G12
  -7941047.28749  -6187826.71948  21209997.1444   21209996.9984
 -14467053.15349 -11273018.41247  22560190.4664   22560190.6224
 -12303742.70948  -9587298.26846  22702467.4824   22702468.1344
  -6392932.74648  -4981492.60945  23762802.3204   23762803.3964
 -22924604.28849 -17863288.87048  20642401.8594   20642401.4704
 -22519478.21549 -17547617.16348  20743242.9054   20743243.7644
 -23481100.035 9 -18296945.016 9  20702929.689    20702928.263
 95  3 14  1 21 30.0000000  0  7G 9G 5G 7G 2G 4G24G12
  -7947210.00849  -6192628.85048  21208824.4614   21208824.3334
 -14546003.32349 -11334537.99947  22545166.6614   22545166.8104
 -12237305.43948  -9535528.97046  22715109.7844   22715110.7444
  -6312527.85348  -4918839.49045  23778102.8424   23778107.8874
 -22902511.43849 -17846073.65648  20646606.0884   20646605.7564
 -22574495.72749 -17590487.93148  20732773.6634   20732774.4734
 -23465076.451 9 -18284459.112 9  20705978.808    20705977.489
 95  3 14  1 22  0.0000000  0  7G 9G 5G 7G 2G 4G24G12
  -7952820.07949  -6197000.33948  21207756.6724   21207756.6224
 -14624877.23149 -11395998.16347  22530157.5504   22530157.6234
 -12170834.29448  -9483733.27746  22727759.1214   22727759.7424
  -6231881.76048  -4855998.44545  23793448.6064   23793453.3984
 -22879851.27749 -17828416.38148  20650917.9294   20650917.5394
 -22629038.21349 -17632988.54848  20722394.4954   20722395.4584
 -23448512.333 9 -18271552.015 9  20709130.831    20709129.506
 95  3 14  1 22 30.0000000  0  7G 9G 5G 7G 2G 4G24G12
  -7957873.28549  -6200937.90548  21206795.0914   21206795.1514
 -14703669.96749 -11457395.08247  22515163.8594   22515163.7804
 -12104319.12448  -9431903.27946  22740416.5464   22740417.2564
  -6150997.73448  -4792971.94945  23808839.9864   23808843.6064
 -22856652.87349 -17810339.69548  20655332.4564   20655332.1134
 -22683119.18549 -17675129.54548  20712103.2214   20712104.2164
 -23431411.926 9 -18258227.030 9  20712384.970    20712383.561
 95  3 14  1 23  0.0000000  0  7G 9G 5G 7G 2G 4G24G12
  -7962360.17149  -6204434.18348  21205941.4844   21205941.1974
 -14782383.42549 -11518730.22047  22500185.2074   22500185.0874
 -12037752.69548  -9380033.34046  22753084.0844   22753084.6924
  -6069861.93248  -4729749.30345  23824280.2774   23824283.5384
 -22832915.48649 -17791843.02448  20659849.6884   20659849.0214
 -22736731.73449 -17716905.53648  20701901.2124   20701901.9644
 -23413766.358 9 -18244477.240 9  20715742.822    20715741.386
 95  3 14  1 23 30.0000000  0  7G 9G 5G 7G 2G 4G24G12
  -7966288.73849  -6207495.41248  21205193.9644   21205193.8934
 -14861015.57749 -11580002.00347  22485221.9794   22485222.1264
 -11971129.60748  -9328119.24446  22765761.8554   22765763.2034
  -5988473.65848  -4666329.93645  23839768.0344   23839769.8354
 -22808639.16049 -17772926.40048  20664469.3804   20664469.0294
 -22789865.23149 -17758308.23948  20691790.0684   20691790.6514
 -23395577.882 9 -18230304.406 9  20719204.010    20719202.614
 95  3 14  1 24  0.0000000  0  7G 9G 5G 7G 2G 4G24G12
  -7969656.52049  -6210119.66548  21204552.5414   21204552.7284
 -14939558.73649 -11641204.43947  22470275.4514   22470275.9984
 -11904457.59948  -9276167.03946  22778449.1064   22778450.7054
  -5906844.10048  -4602722.53145  23855301.5944   23855305.8814
 -22783854.14449 -17753613.39748  20669185.6694   20669185.3044
 -22842510.05749 -17799330.16048  20681771.8414   20681772.6874
 -23376847.628 9 -18215709.412 9  20722768.264    20722766.900
 95  3 14  1 24 30.0000000  0  7G 9G 5G 7G 2G 4G24G12
  -7972494.36949  -6212330.97648  21204012.7284   21204012.8754
 -15018044.04449 -11702361.79747  22455340.2164   22455340.5414
 -11837780.92648  -9224211.20646  22791137.2724   22791137.6834
  -5825010.65648  -4538956.23346  23870874.2864   23870877.2114
 -22758594.01149 -17733930.17648  20673992.5054   20673992.2114
 -22894697.97749 -17839996.04948  20671841.1674   20671841.6444
 -23357604.915 9 -18200715.100 9  20726430.036    20726428.614
 95  3 14  1 25  0.0000000  0  7G 9G 5G 7G 2G 4G24G12
  -7974801.60749  -6214128.82748  21203573.9584   21203573.8804
 -15096471.71449 -11763474.24647  22440415.8774   22440415.9154
 -11771091.24548  -9172245.22546  22803827.9154   22803827.9934
  -5742967.23748  -4475026.34046  23886486.8864   23886488.1724
 -22732821.64849 -17713847.81148  20678896.8444   20678896.3414
 -22946413.67649 -17880293.97548  20662000.0234   20662000.8834
 -23337832.697 9 -18185308.184 9  20730192.567    20730191.146
 95  3 14  1 25 30.0000000  0  7G 9G 5G 7G 2G 4G24G12
  -7976588.78449  -6215521.43848  21203234.0094   21203233.6114
 -15174846.53349 -11824545.50847  22425501.4984   22425501.3404
 -11704417.25548  -9120291.46446  22816515.5464   22816517.1284
  -5660739.86748  -4410953.13146  23902134.1984   23902137.3534
 -22706533.72949 -17693363.71248  20683899.2664   20683898.8694
 -22997665.13049 -17920230.15148  20652246.8694   20652247.7724
 -23317537.455 9 -18169493.714 9  20734054.646    20734053.218
 95  3 14  1 26  0.0000000  0  7G 9G 5G 7G 2G 4G24G12
  -7977850.86649  -6216504.88348  21202993.4564   21202993.3104
 -15253171.95049 -11885578.28347  22410596.6874   22410596.7244
 -11637768.28148  -9068357.20646  22829198.1784   22829198.9594
  -5578321.70448  -4346731.24846  23917818.1804   23917820.6264
 -22679714.01649 -17672465.23048  20689002.9154   20689002.4704
 -23048450.01049 -17959802.76748  20642582.9294   20642583.5804
 -23296707.232 9 -18153262.376 9  20738018.496    20738017.127
 95  3 14  1 26 30.0000000  0  7G 9G 5G 7G 2G 4G24G12
  -7978540.99449  -6217042.64948  21202862.2894   21202862.3714
 -15331415.11849 -11946546.96947  22395707.6824   22395708.0304
 -11571109.89848  -9016415.61446  22841883.0974   22841883.9594
  -5495663.67448  -4282322.45046  23933547.8694   23933550.7684
 -22652295.13449 -17651099.86248  20694220.4534   20694219.9714
 -23098738.83049 -17998988.83848  20633013.4034   20633013.9214
 -23275297.178 9 -18136579.224 9  20742092.692    20742091.307
 95  3 14  1 27  0.0000000  0  7G 9G 5G 7G 2G 4G24G12
  -7978665.04549  -6217139.31548  21202838.7174   21202838.7274
 -15409587.56449 -12007460.54347  22380831.9604   22380832.0764
 -11504456.74448  -8964478.09146  22854566.9754   22854567.0784
  -5412786.87148  -4217743.15546  23949319.2954   23949321.0574
 -22624288.33549 -17629276.37848  20699549.9104   20699549.5534
 -23148528.83549 -18037786.22548  20623538.6204   20623539.1524
 -23253321.156 9 -18119455.059 9  20746274.607    20746273.198
 95  3 14  1 27 30.0000000  0  7G 9G 5G 7G 2G 4G24G12
  -7978199.12549  -6216776.26748  21202927.3624   21202927.2584
 -15487657.54249 -12068294.26547  22365975.6294   22365976.3064
 -11437803.15948  -8912540.23046  22867250.3274   22867251.5894
  -5329669.53348  -4152976.46046  23965135.9394   23965136.8904
 -22595692.56649 -17606993.95748  20704991.4644   20704991.1474
 -23197786.38349 -18076168.70648  20614165.3334   20614166.0024
 -23230764.982 9 -18101878.830 9  20750566.896    20750565.544
 95  3 14  1 28  0.0000000  0  7G 9G 5G 7G 2G 4G24G12
  -7977107.90149  -6215925.96748  21203134.8794   21203135.0564
 -15565600.64749 -12129029.12047  22351143.6294   22351143.8234
 -11371106.68848  -8860568.94946  22879942.3184   22879943.0804
  -5246277.90648  -4087996.00146  23981004.5404   23981006.0574
 -22566504.44349 -17584249.95948  20710545.9134   20710545.3704
 -23246487.95349 -18114117.96348  20604897.8974   20604898.4974
 -23207613.779 9 -18083838.941 9  20754972.456    20754971.095
 95  3 14  1 28 30.0000000  0  7G 9G 5G 7G 2G 4G24G12
  -7975383.73349  -6214582.46648  21203463.1604   21203462.9514
 -15643391.64849 -12189645.46147  22336340.5334   22336340.4634
 -11304346.40848  -8808547.95746  22892646.5024   22892646.4274
  -5162604.27548  -4022795.81146  23996927.2394   23996930.5794
 -22536733.28049 -17561051.64548  20716211.2404   20716210.5884
 -23294625.37949 -18151627.62648  20595737.3604   20595737.9914
 -23183870.577 9 -18065337.753 9  20759490.619    20759489.238
 95  3 14  1 29  0.0000000  0  7G 9G 5G 7G 2G 4G24G12
  -7973051.87749  -6212765.44248  21203906.9544   21203906.9384
 -15721044.10849 -12250153.84547  22321563.7574   22321563.6174
 -11237534.98348  -8756487.10946  22905360.2094   22905360.5944
  -5078667.36048  -3957390.46645  24012900.3194   24012901.9644
 -22506414.65049 -17537426.73148  20721980.5964   20721979.8644
 -23342215.41049 -18188710.74748  20586681.1184   20586681.8584
 -23159563.199 9 -18046396.946 9  20764116.184    20764114.751
 95  3 14  1 29 30.0000000  0  7G 9G 5G 7G 2G 4G24G12
  -7970106.81449  -6210470.59348  21204467.0374   21204467.0214
 -15798552.71449 -12310550.13247  22306814.1854   22306814.5104
 -11170665.16848  -8704380.76046  22918085.0774   22918085.1424
  -4994450.35648  -3891766.84946  24028926.4434   24028927.5994
 -22475549.22049 -17513375.74048  20727854.0404   20727853.5714
 -23389270.19749 -18225376.79248  20577727.0694   20577727.6324
 -23134687.735 9 -18027013.475 9  20768849.806    20768848.430
 95  3 14  1 30  0.0000000  0  7G 9G 5G 7G 2G 4G24G12
  -7966596.66049  -6207735.41748  21205135.1464   21205134.9704
 -15875968.83649 -12370874.35547  22292082.2454   22292082.8634
 -11103768.27948  -8652253.31446  22930815.2234   22930815.7394
  -4910010.87048  -3825969.93345  24044994.9824   24044996.7704
 -22444174.57349 -17488927.95848  20733824.3994   20733824.0674
 -23435853.42549 -18261675.39148  20568862.5494   20568863.0844
 -23109287.545 9 -18007221.130 9  20773683.310    20773681.996
 95  3 14  1 30 30.0000000  0  7G 9G 5G 7G 2G 4G24G12
  -7962566.70949  -6204595.20748  21205902.0394   21205901.7564
 -15953320.69949 -12431148.49847  22277362.6854   22277362.8754
 -11036880.42048  -8600132.90046  22943543.6894   22943544.6354
  -4825378.21648  -3760022.43745  24061099.9814   24061100.6554
 -22412310.41649 -17464098.73848  20739887.9414   20739887.5334
 -23481987.30049 -18297623.84548  20560083.5384   20560084.1454
 -23083382.249 9 -17987035.195 9  20778612.970    20778611.561
 95  3 14  1 31  0.0000000  0  7G 9G 5G 7G 2G 4G24G12
  -7957999.77249  -6201036.56948  21206771.0944   21206770.9724
 -16030606.57849 -12491371.22747  22262655.7204   22262655.7064
 -10969997.22348  -8548016.12346  22956270.6834   22956271.4804
  -4740538.56048  -3693913.61345  24077243.8394   24077245.2794
 -22379944.49949 -17438878.53748  20746046.8764   20746046.3724
 -23527654.33649 -18333208.53148  20551393.2614   20551393.8194
 -23056951.922 9 -17966440.143 9  20783642.509    20783641.020
 95  3 14  1 31 30.0000000  0  7G 9G 5G 7G 2G 4G24G12
  -7952878.97749  -6197046.34548  21207745.5324   21207745.4834
 -16107814.49449 -12551533.21147  22247963.6674   22247963.4944
 -10903095.59148  -8495884.97046  22969001.9904   22969002.8754
  -4655485.04848  -3627638.22545  24093428.2394   24093430.9594
 -22347065.84949 -17413258.80348  20752303.5884   20752303.1644
 -23572839.01849 -18368417.35448  20542794.9904   20542795.6304
 -23029973.617 9 -17945418.093 9  20788776.283    20788774.870
 95  3 14  1 32  0.0000000  0  7G 9G 5G 7G 2G 4G24G12
  -7947208.09049  -6192627.47648  21208824.6894   21208824.6944
 -16184942.51249 -12611632.94247  22233286.6594   22233286.3214
 -10836161.80048  -8443728.78146  22981739.3724   22981739.9234
  -4570218.09948  -3561196.52445  24109653.5404   24109654.0064
 -22313674.53949 -17387239.59048  20758657.7864   20758657.2044
 -23617528.99749 -18403240.69248  20534290.7894   20534291.3334
 -23002440.527 9 -17923963.746 9  20794015.652    20794014.304
 95  3 14  1 32 30.0000000  0  7G 9G 5G 7G 2G 4G24G12
  -7940968.67449  -6187765.60048  21210011.7934   21210011.5274
 -16261983.13749 -12671664.57347  22218626.2734   22218626.3974
 -10769188.58948  -8391541.87646  22994483.5114   22994484.7554
  -4484707.92748  -3494565.27445  24125925.8824   24125929.7514
 -22279763.91849 -17360815.72048  20765110.8374   20765110.2944
 -23661696.23449 -18437656.70148  20525886.0514   20525886.5084
 -22974337.624 9 -17902065.385 9  20799363.479    20799362.113
 95  3 14  1 33  0.0000000  0  7G 9G 5G 7G 2G 4G24G12
  -7934154.55449  -6182455.90748  21211308.5024   21211308.3414
 -16338941.18049 -12731631.85747  22203981.6194   22203981.7164
 -10702176.24648  -8339324.45246  23007235.8664   23007237.3414
  -4398969.66748  -3427756.25245  24142241.4304   24142245.6234
 -22245337.07549 -17333989.60248  20771661.9984   20771661.4264
 -23705350.09349 -18471672.67548  20517578.9884   20517579.5154
 -22945673.126 9 -17879729.420 9  20804818.175    20804816.802
 95  3 14  1 33 30.0000000  0  7G 9G 5G 7G 2G 4G24G12
  -7926772.20549  -6176703.43748  21212713.5274   21212713.4934
 -16415798.51549 -12791520.68047  22189356.0414   22189355.7654
 -10635124.42148  -8287076.28646  23019995.2804   23019995.5634
  -4313006.53948  -3360772.00245  24158599.5264   24158603.5924
 -22210373.84849 -17306745.52148  20778315.1934   20778314.6534
 -23748494.44349 -18505291.63148  20509368.7864   20509369.3394
 -22916444.976 9 -17856954.248 9  20810380.111    20810378.744
 95  3 14  1 34  0.0000000  0  7G 9G 5G 7G 2G 4G24G12
  -7918813.90649  -6170502.17648  21214228.0934   21214227.9164
 -16492521.18449 -12851304.55947  22174756.2894   22174756.1824
 -10568035.56748  -8234799.25146  23032761.4964   23032762.3984
  -4226797.32648  -3293596.03645  24175004.1904   24175007.7304
 -22174844.49749 -17279060.30548  20785076.1334   20785075.6544
 -23791110.09949 -18538498.61648  20501259.4374   20501259.9794
 -22886642.751 9 -17833731.743 9  20816051.296    20816049.939
 95  3 14  1 34 30.0000000  0  7G 9G 5G 7G 2G 4G24G12
  -7910291.28449  -6163861.18248  21215849.7064   21215849.4964
 -16569109.69449 -12910983.89947  22160182.0684   22160182.1384
 -10500946.27048  -8182521.87146  23045528.1264   23045529.8784
  -4140364.03648  -3226245.39945  24191452.0074   24191459.4804
 -22138764.23349 -17250945.80648  20791942.0854   20791941.5044
 -23833216.39249 -18571308.69348  20493246.6784   20493247.2134
 -22856292.203 9 -17810081.971 9  20821826.855    20821825.445
 95  3 14  1 35  0.0000000  0  7G 9G 5G 7G 2G 4G24G12
  -7901221.79049  -6156794.05148  21217575.2004   21217574.9384
 -16645549.26749 -12970547.18147  22145635.9574   22145636.3424
 -10433869.32348  -8130254.12946  23058292.7364   23058293.0364
  -4053723.08148  -3158732.97145  24207939.8214   24207943.5304
 -22102138.98449 -17222406.64248  20798911.6664   20798911.0334
 -23874831.55349 -18603736.06848  20485327.6634   20485328.2094
 -22825405.117 9 -17786014.116 9  20827704.451    20827703.071
 95  3 14  1 35 30.0000000  0  7G 9G 5G 7G 2G 4G24G12
  -7891580.95149  -6149281.71848  21219410.1784   21219409.8444
 -16721799.94349 -13029963.26547  22131125.9164   22131126.2454
 -10366774.14648  -8077972.17646  23071060.4524   23071062.0094
  -3966823.04648  -3091018.69945  24224476.7974   24224479.5584
 -22064942.05249 -17193422.00948  20805989.9474   20805989.4344
 -23915917.56849 -18635751.12448  20477509.3764   20477509.9094
 -22793948.894 9 -17761502.779 9  20833690.368    20833689.026
 95  3 14  1 36  0.0000000  0  7G 9G 5G 7G 2G 4G24G12
  -7881360.58249  -6141317.80548  21221355.4774   21221354.9604
 -16797881.85849 -13089247.84947  22116647.9484   22116648.1134
 -10299670.54548  -8025683.66346  23083829.5824   23083830.5814
  -3879670.15948  -3023107.36445  24241061.2964   24241063.3324
 -22027203.46049 -17164015.30748  20813171.2904   20813170.8394
 -23956476.60749 -18667355.54748  20469791.1114   20469791.8264
 -22761933.335 9 -17736555.597 9  20839782.686    20839781.450
 95  3 14  1 36 30.0000000  0  7G 9G 5G 7G 2G24G 4G12
  -7870599.21449  -6132932.33348  21223403.2644   21223402.8074
 -16873846.72149 -13148441.23447  22102192.5924   22102192.7254
 -10232588.92748  -7973412.27146  23096594.9954   23096596.2134
  -3792304.08848  -2955029.98145  24257686.3704   24257690.0324
 -23996539.94649 -18698573.71348  20462167.2234   20462167.7754
 -21988983.36949 -17134233.40948  20820444.4164   20820443.9014
 -22729395.249 9 -17711201.252 9  20845974.518    20845973.260
 95  3 14  1 37  0.0000000  0  5G 9G 5G 2G24G 4
  -7859272.05349  -6124105.84247  21225537.8014   21225539.5464
 -16949671.71849 -13207525.72746  22087741.7534   22087744.1104
  -3704748.20948  -2886804.57845  24274350.2634   24274352.4884
 -24036089.45849 -18729391.23548  20454640.1194   20454640.5814
 -21950256.93249 -17104056.91247  20827793.0704   20827790.1904
 95  3 14  1 37 30.0000000  0  6G 9G 5G 2G24G 4G12
  -7846583.34149  -6114218.52744  21227824.8334   21227827.3854
 -17024597.17749 -13265910.03144  22073355.4874   22073367.2804
  -3616873.24348  -2818330.57145  24291074.3694   24291074.3744
 -24075031.51349 -18759735.50148  20447228.6754   20447229.0684
 -21910259.11649 -17072889.43744  20835276.5394   20835278.7644
         0.05719        -0.24419  20858678.604    20858677.288
 95  3 14  1 45  0.0000000  0  3G24G 4G12
         0.25959         0.58458  20349517.9084   20349518.2264
        -0.48759         0.26958  20960141.6904   20960141.0964
        -0.39619        -0.40919  20968788.303    20968787.031
 95  3 14  1 45 30.0000000  0  4G 5G24G 4G12
        -1.16959        -1.05957  21847974.8964   21847974.9384
    -29449.26649    -22947.07748  20343913.7314   20343914.1084
     48224.65449     37578.30848  20969318.7904   20969318.1724
     43489.569 9     33887.867 9  20977064.211    20977062.855
 95  3 14  1 46  0.0000000  0  4G 5G12G24G 4
    -74047.01449    -57699.09247  21833884.4904   21833884.5824
     85619.200 9     66716.145 9  20985081.244    20985079.826
    -60281.85549    -46972.44948  20338046.6014   20338046.8994
     95038.22849     74056.42748  20978227.1054   20978226.3884
 95  3 14  1 46 30.0000000  0  4G 5G 4G12G24
   -148218.53949   -115495.06347  21819770.0474   21819770.0054
    142038.52149    110680.04048  20987170.9314   20987170.3284
    127987.174 9     99730.144 9  20993143.570    20993142.213
    -90904.65049    -70834.34748  20332219.3214   20332219.6694
 95  3 14  1 47  0.0000000  0  5G 5G 4G12G20G24
   -222442.39349   -173331.81247  21805645.7364   21805645.7344
    189309.26049    147514.39048  20996166.1284   20996165.6444
    170675.462 9    132993.738 9  21001266.850    21001265.536
        -0.40658         0.52755  24916255.5724   24916258.5524
   -121247.05449    -94477.75748  20326445.3414   20326445.6254
